Time,TemperatureF,DewpointF,PressureIn,WindDirection,WindDirectionDegrees,WindSpeedMPH,WindSpeedGustMPH,Humidity,HourlyPrecipIn,Conditions,Clouds,dailyrainin,SoftwareType,DateUTC
2017-02-21 00:00:00,52.6,52.0,30.04,SE,144,2.0,4.0,98,0.00,,---,2.82,VWS V14.01,2017-02-21 08:00:00,
2017-02-21 00:01:00,52.6,52.0,30.04,SW,227,4.0,4.0,98,0.00,,---,0.00,VWS V14.01,2017-02-21 08:01:00,
2017-02-21 00:02:00,52.6,52.0,30.04,SE,136,4.0,5.0,98,0.00,,---,0.00,VWS V14.01,2017-02-21 08:02:00,
2017-02-21 00:03:00,52.6,52.0,30.04,SE,126,2.0,6.0,98,0.00,,---,0.00,VWS V14.01,2017-02-21 08:03:00,
2017-02-21 00:04:00,52.6,52.0,30.04,SSE,150,4.0,4.0,98,0.00,,---,0.00,VWS V14.01,2017-02-21 08:04:00,
2017-02-21 00:05:00,52.6,52.0,30.04,South,170,2.0,4.0,98,0.00,,---,0.00,VWS V14.01,2017-02-21 08:05:00,
2017-02-21 00:06:00,52.6,52.0,30.05,South,188,2.0,6.0,98,0.00,,---,0.00,VWS V14.01,2017-02-21 08:06:00,
2017-02-21 00:07:00,52.6,52.0,30.04,SSW,212,1.0,5.0,98,0.00,,---,0.00,VWS V14.01,2017-02-21 08:07:00,
2017-02-21 00:08:00,52.6,52.0,30.04,South,186,0.0,3.0,98,0.00,,---,0.00,VWS V14.01,2017-02-21 08:08:00,
2017-02-21 00:09:00,52.5,52.0,30.05,SSW,198,2.0,4.0,98,0.00,,---,0.00,VWS V14.01,2017-02-21 08:09:00,
2017-02-21 00:10:00,52.5,52.0,30.05,South,173,2.0,10.0,98,0.00,,---,0.00,VWS V14.01,2017-02-21 08:10:00,
2017-02-21 00:11:00,52.6,52.0,30.04,South,171,1.0,5.0,98,0.00,,---,0.00,VWS V14.01,2017-02-21 08:11:00,
2017-02-21 00:12:00,52.6,52.0,30.04,SE,128,3.0,7.0,98,0.00,,---,0.00,VWS V14.01,2017-02-21 08:12:00,
2017-02-21 00:13:00,52.6,52.0,30.05,SE,139,1.0,5.0,98,0.00,,---,0.00,VWS V14.01,2017-02-21 08:13:00,
2017-02-21 00:14:00,52.6,52.0,30.05,SSW,203,1.0,5.0,98,0.00,,---,0.00,VWS V14.01,2017-02-21 08:14:00,
2017-02-21 00:15:00,52.6,52.0,30.05,SSE,159,0.0,2.0,98,0.00,,---,0.00,VWS V14.01,2017-02-21 08:15:00,
2017-02-21 00:16:00,52.6,52.0,30.05,SSW,195,2.0,4.0,98,0.00,,---,0.00,VWS V14.01,2017-02-21 08:16:00,
2017-02-21 00:17:00,52.6,52.0,30.05,SE,141,1.0,3.0,98,0.00,,---,0.00,VWS V14.01,2017-02-21 08:17:00,
2017-02-21 00:18:00,52.5,52.0,30.05,SE,126,2.0,2.0,98,0.00,,---,0.00,VWS V14.01,2017-02-21 08:18:00,
2017-02-21 00:19:00,52.5,52.0,30.04,South,173,1.0,4.0,98,0.00,,---,0.00,VWS V14.01,2017-02-21 08:19:00,
2017-02-21 00:20:00,52.6,52.0,30.05,SE,130,1.0,2.0,98,0.00,,---,0.00,VWS V14.01,2017-02-21 08:20:00,
2017-02-21 00:21:00,52.5,52.0,30.05,SSE,156,1.0,1.0,98,0.00,,---,0.00,VWS V14.01,2017-02-21 08:21:00,
2017-02-21 00:22:00,52.5,52.0,30.05,SSE,150,1.0,4.0,98,0.00,,---,0.00,VWS V14.01,2017-02-21 08:22:00,
2017-02-21 00:23:00,52.5,52.0,30.05,SE,146,1.0,2.0,98,0.00,,---,0.00,VWS V14.01,2017-02-21 08:23:00,
2017-02-21 00:24:00,52.5,52.0,30.05,East,98,2.0,4.0,98,0.00,,---,0.00,VWS V14.01,2017-02-21 08:24:00,
2017-02-21 00:25:00,52.5,52.0,30.05,SE,142,1.0,2.0,98,0.00,,---,0.00,VWS V14.01,2017-02-21 08:25:00,
2017-02-21 00:26:00,52.6,51.8,30.05,SSE,164,3.0,3.0,97,0.00,,---,0.00,VWS V14.01,2017-02-21 08:26:00,
2017-02-21 00:27:00,52.6,51.8,30.05,South,180,1.0,3.0,97,0.00,,---,0.00,VWS V14.01,2017-02-21 08:27:00,
2017-02-21 00:28:00,52.6,51.8,30.05,SSE,163,1.0,3.0,97,0.00,,---,0.00,VWS V14.01,2017-02-21 08:28:00,
2017-02-21 00:29:00,52.6,51.8,30.05,SSW,208,4.0,5.0,97,0.00,,---,0.00,VWS V14.01,2017-02-21 08:29:00,
2017-02-21 00:30:00,52.6,51.8,30.05,SE,146,3.0,5.0,97,0.00,,---,0.00,VWS V14.01,2017-02-21 08:30:00,
2017-02-21 00:31:00,52.6,51.8,30.05,SSW,193,1.0,5.0,97,0.00,,---,0.00,VWS V14.01,2017-02-21 08:31:00,
2017-02-21 00:32:00,52.6,51.8,30.05,SSW,201,0.0,3.0,97,0.00,,---,0.00,VWS V14.01,2017-02-21 08:32:00,
2017-02-21 00:33:00,52.6,51.8,30.05,SSW,201,0.0,0.0,97,0.00,,---,0.00,VWS V14.01,2017-02-21 08:33:00,
2017-02-21 00:34:00,52.6,51.8,30.05,South,171,5.0,5.0,97,0.00,,---,0.00,VWS V14.01,2017-02-21 08:34:00,
2017-02-21 00:35:00,52.6,51.8,30.05,SSE,155,2.0,4.0,97,0.00,,---,0.00,VWS V14.01,2017-02-21 08:35:00,
2017-02-21 00:36:00,52.6,51.8,30.06,South,176,1.0,3.0,97,0.00,,---,0.00,VWS V14.01,2017-02-21 08:36:00,
2017-02-21 00:37:00,52.6,51.8,30.05,SSE,153,3.0,4.0,97,0.00,,---,0.00,VWS V14.01,2017-02-21 08:37:00,
2017-02-21 00:38:00,52.6,51.8,30.05,South,188,3.0,6.0,97,0.00,,---,0.00,VWS V14.01,2017-02-21 08:38:00,
2017-02-21 00:39:00,52.6,51.8,30.06,SSE,154,0.0,3.0,97,0.00,,---,0.00,VWS V14.01,2017-02-21 08:39:00,
2017-02-21 00:40:00,52.6,51.8,30.05,SE,132,0.0,5.0,97,0.00,,---,0.00,VWS V14.01,2017-02-21 08:40:00,
2017-02-21 00:41:00,52.6,51.8,30.05,South,177,2.0,4.0,97,0.00,,---,0.00,VWS V14.01,2017-02-21 08:41:00,
2017-02-21 00:42:00,52.6,51.8,30.05,SSE,149,3.0,4.0,97,0.00,,---,0.00,VWS V14.01,2017-02-21 08:42:00,
2017-02-21 00:43:00,52.6,51.8,30.06,SSE,150,1.0,5.0,97,0.00,,---,0.00,VWS V14.01,2017-02-21 08:43:00,
2017-02-21 00:44:00,52.6,51.8,30.05,SSE,163,1.0,3.0,97,0.00,,---,0.00,VWS V14.01,2017-02-21 08:44:00,
2017-02-21 00:45:00,52.6,51.8,30.05,East,96,2.0,3.0,97,0.00,,---,0.00,VWS V14.01,2017-02-21 08:45:00,
2017-02-21 00:46:00,52.6,51.8,30.06,WSW,240,0.0,8.0,97,0.00,,---,0.00,VWS V14.01,2017-02-21 08:46:00,
2017-02-21 00:47:00,52.6,51.8,30.05,SSE,153,1.0,4.0,97,0.00,,---,0.00,VWS V14.01,2017-02-21 08:47:00,
2017-02-21 00:48:00,52.7,51.9,30.05,SSE,167,2.0,5.0,97,0.00,,---,0.00,VWS V14.01,2017-02-21 08:48:00,
2017-02-21 00:49:00,52.7,51.9,30.05,South,176,1.0,3.0,97,0.00,,---,0.00,VWS V14.01,2017-02-21 08:49:00,
2017-02-21 00:50:00,52.7,51.9,30.05,SSE,159,2.0,5.0,97,0.00,,---,0.00,VWS V14.01,2017-02-21 08:50:00,
2017-02-21 00:51:00,52.7,51.9,30.05,SE,146,1.0,3.0,97,0.00,,---,0.00,VWS V14.01,2017-02-21 08:51:00,
2017-02-21 00:52:00,52.7,51.9,30.05,SE,143,0.0,2.0,97,0.00,,---,0.00,VWS V14.01,2017-02-21 08:52:00,
2017-02-21 00:53:00,52.7,51.9,30.05,South,178,1.0,1.0,97,0.00,,---,0.00,VWS V14.01,2017-02-21 08:53:00,
2017-02-21 00:54:00,52.7,51.9,30.06,SSW,200,0.0,2.0,97,0.00,,---,0.00,VWS V14.01,2017-02-21 08:54:00,
2017-02-21 00:55:00,52.7,51.9,30.05,SW,236,0.0,6.0,97,0.00,,---,0.00,VWS V14.01,2017-02-21 08:55:00,
2017-02-21 00:56:00,52.7,51.9,30.06,SSW,200,6.0,6.0,97,0.00,,---,0.00,VWS V14.01,2017-02-21 08:56:00,
2017-02-21 00:57:00,52.7,51.9,30.06,SW,220,3.0,6.0,97,0.00,,---,0.00,VWS V14.01,2017-02-21 08:57:00,
2017-02-21 00:58:00,52.7,51.9,30.06,SSW,213,0.0,6.0,97,0.00,,---,0.00,VWS V14.01,2017-02-21 08:58:00,
2017-02-21 00:59:00,52.7,51.9,30.06,SW,228,3.0,3.0,97,0.00,,---,0.00,VWS V14.01,2017-02-21 08:59:00,
2017-02-21 01:00:00,52.7,51.9,30.06,SE,128,1.0,5.0,97,0.00,,---,0.00,VWS V14.01,2017-02-21 09:00:00,
2017-02-21 01:01:00,52.7,51.9,30.06,SE,141,2.0,3.0,97,0.00,,---,0.00,VWS V14.01,2017-02-21 09:01:00,
2017-02-21 01:02:00,52.7,51.9,30.06,SW,216,3.0,3.0,97,0.00,,---,0.00,VWS V14.01,2017-02-21 09:02:00,
2017-02-21 01:03:00,52.8,51.7,30.06,South,171,2.0,8.0,96,0.00,,---,0.00,VWS V14.01,2017-02-21 09:03:00,
2017-02-21 01:04:00,52.7,51.6,30.06,WNW,284,1.0,2.0,96,0.00,,---,0.00,VWS V14.01,2017-02-21 09:04:00,
2017-02-21 01:05:00,52.7,51.6,30.05,ESE,117,1.0,3.0,96,0.00,,---,0.00,VWS V14.01,2017-02-21 09:05:00,
2017-02-21 01:06:00,52.8,51.7,30.06,SE,138,2.0,3.0,96,0.00,,---,0.00,VWS V14.01,2017-02-21 09:06:00,
2017-02-21 01:07:00,52.8,51.7,30.06,SSE,165,0.0,2.0,96,0.00,,---,0.00,VWS V14.01,2017-02-21 09:07:00,
2017-02-21 01:08:00,52.8,51.7,30.06,SSE,165,0.0,1.0,96,0.00,,---,0.00,VWS V14.01,2017-02-21 09:08:00,
2017-02-21 01:09:00,52.8,51.7,30.06,South,176,4.0,5.0,96,0.00,,---,0.00,VWS V14.01,2017-02-21 09:09:00,
2017-02-21 01:10:00,52.8,51.7,30.06,SE,146,1.0,4.0,96,0.00,,---,0.00,VWS V14.01,2017-02-21 09:10:00,
2017-02-21 01:11:00,52.8,51.7,30.06,SSE,163,3.0,5.0,96,0.00,,---,0.00,VWS V14.01,2017-02-21 09:11:00,
2017-02-21 01:12:00,52.8,51.7,30.06,SSW,198,2.0,5.0,96,0.00,,---,0.00,VWS V14.01,2017-02-21 09:12:00,
2017-02-21 01:13:00,52.8,51.7,30.06,SSE,152,3.0,3.0,96,0.00,,---,0.00,VWS V14.01,2017-02-21 09:13:00,
2017-02-21 01:14:00,52.8,51.7,30.06,East,83,3.0,5.0,96,0.00,,---,0.00,VWS V14.01,2017-02-21 09:14:00,
2017-02-21 01:15:00,52.8,51.7,30.06,South,184,2.0,4.0,96,0.00,,---,0.00,VWS V14.01,2017-02-21 09:15:00,
2017-02-21 01:16:00,52.8,51.7,30.06,WNW,295,6.0,7.0,96,0.00,,---,0.00,VWS V14.01,2017-02-21 09:16:00,
2017-02-21 01:17:00,52.8,51.7,30.06,SSE,155,0.0,6.0,96,0.00,,---,0.00,VWS V14.01,2017-02-21 09:17:00,
2017-02-21 01:18:00,52.8,51.7,30.07,ESE,111,3.0,3.0,96,0.00,,---,0.00,VWS V14.01,2017-02-21 09:18:00,
2017-02-21 01:19:00,52.8,51.7,30.06,SSE,150,1.0,3.0,96,0.00,,---,0.00,VWS V14.01,2017-02-21 09:19:00,
2017-02-21 01:20:00,52.8,51.7,30.07,South,180,2.0,5.0,96,0.00,,---,0.00,VWS V14.01,2017-02-21 09:20:00,
2017-02-21 01:21:00,52.8,51.7,30.07,SE,127,1.0,2.0,96,0.00,,---,0.00,VWS V14.01,2017-02-21 09:21:00,
2017-02-21 01:22:00,52.8,51.7,30.06,SE,127,1.0,2.0,96,0.00,,---,0.00,VWS V14.01,2017-02-21 09:22:00,
2017-02-21 01:23:00,52.8,51.7,30.06,SSE,163,2.0,4.0,96,0.00,,---,0.00,VWS V14.01,2017-02-21 09:23:00,
2017-02-21 01:24:00,52.8,51.7,30.06,SW,217,0.0,2.0,96,0.00,,---,0.00,VWS V14.01,2017-02-21 09:24:00,
2017-02-21 01:25:00,52.8,51.7,30.06,SW,220,0.0,4.0,96,0.00,,---,0.00,VWS V14.01,2017-02-21 09:25:00,
2017-02-21 01:26:00,52.8,51.7,30.06,SSW,194,0.0,1.0,96,0.00,,---,0.00,VWS V14.01,2017-02-21 09:26:00,
2017-02-21 01:27:00,52.8,51.7,30.06,SW,216,0.0,7.0,96,0.00,,---,0.00,VWS V14.01,2017-02-21 09:27:00,
2017-02-21 01:28:00,52.7,51.6,30.06,South,175,3.0,5.0,96,0.00,,---,0.00,VWS V14.01,2017-02-21 09:28:00,
2017-02-21 01:29:00,52.7,51.6,30.06,WSW,240,1.0,3.0,96,0.00,,---,0.00,VWS V14.01,2017-02-21 09:29:00,
2017-02-21 01:30:00,52.7,51.6,30.06,SSW,200,2.0,6.0,96,0.00,,---,0.00,VWS V14.01,2017-02-21 09:30:00,
2017-02-21 01:31:00,52.7,51.6,30.06,NNW,343,2.0,3.0,96,0.00,,---,0.00,VWS V14.01,2017-02-21 09:31:00,
2017-02-21 01:32:00,52.7,51.6,30.06,SE,137,3.0,6.0,96,0.00,,---,0.00,VWS V14.01,2017-02-21 09:32:00,
2017-02-21 01:33:00,52.7,51.6,30.07,SSE,157,1.0,4.0,96,0.00,,---,0.00,VWS V14.01,2017-02-21 09:33:00,
2017-02-21 01:34:00,52.7,51.6,30.07,East,94,1.0,1.0,96,0.00,,---,0.00,VWS V14.01,2017-02-21 09:34:00,
2017-02-21 01:35:00,52.7,51.6,30.07,SSE,153,6.0,6.0,96,0.00,,---,0.00,VWS V14.01,2017-02-21 09:35:00,
2017-02-21 01:36:00,52.7,51.6,30.07,SE,135,1.0,7.0,96,0.01,,---,0.01,VWS V14.01,2017-02-21 09:36:00,
2017-02-21 01:37:00,52.7,51.6,30.07,South,174,2.0,8.0,96,0.02,,---,0.02,VWS V14.01,2017-02-21 09:37:00,
2017-02-21 01:38:00,52.7,51.6,30.07,SSW,198,1.0,7.0,96,0.02,,---,0.02,VWS V14.01,2017-02-21 09:38:00,
2017-02-21 01:39:00,52.7,51.6,30.07,West,261,1.0,3.0,96,0.03,,---,0.03,VWS V14.01,2017-02-21 09:39:00,
2017-02-21 01:40:00,52.7,51.6,30.07,South,178,0.0,2.0,96,0.03,,---,0.03,VWS V14.01,2017-02-21 09:40:00,
2017-02-21 01:41:00,52.7,51.6,30.07,South,175,2.0,6.0,96,0.03,,---,0.03,VWS V14.01,2017-02-21 09:41:00,
2017-02-21 01:42:00,52.7,51.6,30.07,SSE,154,1.0,6.0,96,0.03,,---,0.03,VWS V14.01,2017-02-21 09:42:00,
2017-02-21 01:43:00,52.6,51.5,30.07,South,185,3.0,4.0,96,0.03,,---,0.03,VWS V14.01,2017-02-21 09:43:00,
2017-02-21 01:44:00,52.6,51.5,30.07,SW,214,0.0,2.0,96,0.03,,---,0.03,VWS V14.01,2017-02-21 09:44:00,
2017-02-21 01:45:00,52.6,51.5,30.07,South,188,0.0,2.0,96,0.03,,---,0.03,VWS V14.01,2017-02-21 09:45:00,
2017-02-21 01:46:00,52.6,51.5,30.07,SSE,163,2.0,4.0,96,0.03,,---,0.03,VWS V14.01,2017-02-21 09:46:00,
2017-02-21 01:47:00,52.6,51.5,30.07,SSE,165,0.0,3.0,96,0.03,,---,0.03,VWS V14.01,2017-02-21 09:47:00,
2017-02-21 01:48:00,52.6,51.5,30.07,South,187,3.0,3.0,96,0.03,,---,0.03,VWS V14.01,2017-02-21 09:48:00,
2017-02-21 01:49:00,52.6,51.5,30.07,East,97,1.0,5.0,96,0.03,,---,0.03,VWS V14.01,2017-02-21 09:49:00,
2017-02-21 01:50:00,52.6,51.5,30.07,WSW,253,0.0,3.0,96,0.03,,---,0.03,VWS V14.01,2017-02-21 09:50:00,
2017-02-21 01:51:00,52.6,51.5,30.07,SSW,196,2.0,2.0,96,0.03,,---,0.03,VWS V14.01,2017-02-21 09:51:00,
2017-02-21 01:52:00,52.5,51.4,30.07,SE,146,5.0,6.0,96,0.03,,---,0.03,VWS V14.01,2017-02-21 09:52:00,
2017-02-21 01:53:00,52.5,51.4,30.08,South,182,2.0,5.0,96,0.03,,---,0.03,VWS V14.01,2017-02-21 09:53:00,
2017-02-21 01:54:00,52.5,51.4,30.07,SSE,164,0.0,4.0,96,0.03,,---,0.03,VWS V14.01,2017-02-21 09:54:00,
2017-02-21 01:55:00,52.5,51.4,30.08,South,191,1.0,5.0,96,0.03,,---,0.03,VWS V14.01,2017-02-21 09:55:00,
2017-02-21 01:56:00,52.5,51.4,30.08,South,191,0.0,5.0,96,0.03,,---,0.03,VWS V14.01,2017-02-21 09:56:00,
2017-02-21 01:57:00,52.5,51.4,30.08,WSW,245,2.0,3.0,96,0.03,,---,0.03,VWS V14.01,2017-02-21 09:57:00,
2017-02-21 01:58:00,52.5,51.4,30.08,SSW,195,2.0,6.0,96,0.03,,---,0.03,VWS V14.01,2017-02-21 09:58:00,
2017-02-21 01:59:00,52.5,51.7,30.08,ESE,119,2.0,2.0,97,0.03,,---,0.03,VWS V14.01,2017-02-21 09:59:00,
2017-02-21 02:00:00,52.5,51.7,30.07,SW,226,3.0,4.0,97,0.03,,---,0.03,VWS V14.01,2017-02-21 10:00:00,
2017-02-21 02:01:00,52.5,51.7,30.07,South,191,0.0,3.0,97,0.03,,---,0.03,VWS V14.01,2017-02-21 10:01:00,
2017-02-21 02:02:00,52.4,51.6,30.07,South,186,3.0,3.0,97,0.03,,---,0.03,VWS V14.01,2017-02-21 10:02:00,
2017-02-21 02:03:00,52.4,51.6,30.08,ESE,119,0.0,3.0,97,0.03,,---,0.03,VWS V14.01,2017-02-21 10:03:00,
2017-02-21 02:04:00,52.4,51.6,30.07,WSW,247,1.0,2.0,97,0.03,,---,0.03,VWS V14.01,2017-02-21 10:04:00,
2017-02-21 02:05:00,52.4,51.6,30.08,SSE,168,0.0,6.0,97,0.03,,---,0.03,VWS V14.01,2017-02-21 10:05:00,
2017-02-21 02:06:00,52.4,51.6,30.08,SSE,165,1.0,2.0,97,0.03,,---,0.03,VWS V14.01,2017-02-21 10:06:00,
2017-02-21 02:07:00,52.4,51.6,30.08,South,184,1.0,4.0,97,0.03,,---,0.03,VWS V14.01,2017-02-21 10:07:00,
2017-02-21 02:08:00,52.4,51.6,30.07,SSW,196,1.0,2.0,97,0.03,,---,0.03,VWS V14.01,2017-02-21 10:08:00,
2017-02-21 02:09:00,52.3,51.5,30.08,South,173,2.0,2.0,97,0.03,,---,0.03,VWS V14.01,2017-02-21 10:09:00,
2017-02-21 02:10:00,52.3,51.2,30.08,SSW,196,4.0,7.0,96,0.03,,---,0.03,VWS V14.01,2017-02-21 10:10:00,
2017-02-21 02:11:00,52.3,51.2,30.08,South,191,0.0,4.0,96,0.03,,---,0.03,VWS V14.01,2017-02-21 10:11:00,
2017-02-21 02:12:00,52.3,51.2,30.08,SW,216,3.0,5.0,96,0.03,,---,0.03,VWS V14.01,2017-02-21 10:12:00,
2017-02-21 02:13:00,52.3,51.2,30.07,SW,216,0.0,3.0,96,0.03,,---,0.03,VWS V14.01,2017-02-21 10:13:00,
2017-02-21 02:14:00,52.3,51.5,30.07,SSW,211,1.0,2.0,97,0.03,,---,0.03,VWS V14.01,2017-02-21 10:14:00,
2017-02-21 02:15:00,52.3,51.5,30.07,NNE,13,4.0,5.0,97,0.03,,---,0.03,VWS V14.01,2017-02-21 10:15:00,
2017-02-21 02:16:00,52.2,51.4,30.07,East,97,1.0,4.0,97,0.03,,---,0.03,VWS V14.01,2017-02-21 10:16:00,
2017-02-21 02:17:00,52.2,51.4,30.08,SSW,205,3.0,10.0,97,0.03,,---,0.03,VWS V14.01,2017-02-21 10:17:00,
2017-02-21 02:18:00,52.2,51.4,30.08,SSE,149,0.0,3.0,97,0.03,,---,0.03,VWS V14.01,2017-02-21 10:18:00,
2017-02-21 02:19:00,52.2,51.4,30.08,SSW,204,3.0,9.0,97,0.03,,---,0.03,VWS V14.01,2017-02-21 10:19:00,
2017-02-21 02:20:00,52.2,51.4,30.08,SSW,196,1.0,7.0,97,0.03,,---,0.03,VWS V14.01,2017-02-21 10:20:00,
2017-02-21 02:21:00,52.1,51.3,30.08,WSW,245,3.0,7.0,97,0.03,,---,0.03,VWS V14.01,2017-02-21 10:21:00,
2017-02-21 02:22:00,52.1,51.0,30.07,NW,325,2.0,3.0,96,0.03,,---,0.03,VWS V14.01,2017-02-21 10:22:00,
2017-02-21 02:23:00,52.1,51.3,30.07,SW,219,3.0,3.0,97,0.03,,---,0.03,VWS V14.01,2017-02-21 10:23:00,
2017-02-21 02:24:00,52.1,51.3,30.08,SSW,213,1.0,4.0,97,0.03,,---,0.03,VWS V14.01,2017-02-21 10:24:00,
2017-02-21 02:25:00,52.1,51.3,30.07,South,188,1.0,3.0,97,0.03,,---,0.03,VWS V14.01,2017-02-21 10:25:00,
2017-02-21 02:28:00,52.1,51.3,30.08,SW,225,2.0,7.0,97,0.03,,---,0.03,VWS V14.01,2017-02-21 10:28:00,
2017-02-21 02:29:00,52.1,51.0,30.07,NNW,327,0.0,2.0,96,0.03,,---,0.03,VWS V14.01,2017-02-21 10:29:00,
2017-02-21 02:30:00,52.0,50.9,30.07,SSE,149,0.0,2.0,96,0.03,,---,0.03,VWS V14.01,2017-02-21 10:30:00,
2017-02-21 02:31:00,52.0,50.9,30.08,SSW,209,0.0,3.0,96,0.03,,---,0.03,VWS V14.01,2017-02-21 10:31:00,
2017-02-21 02:32:00,52.0,50.9,30.08,SE,144,2.0,2.0,96,0.03,,---,0.03,VWS V14.01,2017-02-21 10:32:00,
2017-02-21 02:33:00,52.0,50.9,30.08,SE,140,2.0,3.0,96,0.03,,---,0.03,VWS V14.01,2017-02-21 10:33:00,
2017-02-21 02:34:00,52.0,50.9,30.08,South,173,0.0,4.0,96,0.03,,---,0.03,VWS V14.01,2017-02-21 10:34:00,
2017-02-21 02:35:00,52.0,50.9,30.08,SSE,166,0.0,3.0,96,0.03,,---,0.03,VWS V14.01,2017-02-21 10:35:00,
2017-02-21 02:36:00,52.0,50.9,30.08,South,177,1.0,2.0,96,0.03,,---,0.03,VWS V14.01,2017-02-21 10:36:00,
2017-02-21 02:37:00,52.0,50.9,30.08,SSW,198,2.0,2.0,96,0.02,,---,0.03,VWS V14.01,2017-02-21 10:37:00,
2017-02-21 02:38:00,52.0,50.9,30.08,WSW,238,6.0,9.0,96,0.02,,---,0.04,VWS V14.01,2017-02-21 10:38:00,
2017-02-21 02:39:00,51.9,50.8,30.08,South,181,1.0,6.0,96,0.02,,---,0.04,VWS V14.01,2017-02-21 10:39:00,
2017-02-21 02:40:00,51.9,50.8,30.08,SSW,194,1.0,5.0,96,0.01,,---,0.04,VWS V14.01,2017-02-21 10:40:00,
2017-02-21 02:41:00,51.9,50.8,30.08,SSW,198,0.0,6.0,96,0.01,,---,0.04,VWS V14.01,2017-02-21 10:41:00,
2017-02-21 02:42:00,51.9,50.8,30.07,SE,138,0.0,2.0,96,0.01,,---,0.04,VWS V14.01,2017-02-21 10:42:00,
2017-02-21 02:43:00,51.9,50.8,30.08,SE,145,3.0,7.0,96,0.01,,---,0.04,VWS V14.01,2017-02-21 10:43:00,
2017-02-21 02:44:00,51.9,50.8,30.08,SSW,202,2.0,3.0,96,0.01,,---,0.04,VWS V14.01,2017-02-21 10:44:00,
2017-02-21 02:45:00,51.9,50.8,30.08,South,185,0.0,9.0,96,0.01,,---,0.04,VWS V14.01,2017-02-21 10:45:00,
2017-02-21 02:46:00,51.9,50.8,30.08,SSE,167,1.0,1.0,96,0.01,,---,0.04,VWS V14.01,2017-02-21 10:46:00,
2017-02-21 02:47:00,51.8,50.7,30.08,West,265,1.0,1.0,96,0.01,,---,0.04,VWS V14.01,2017-02-21 10:47:00,
2017-02-21 02:48:00,51.8,50.7,30.08,SSE,158,2.0,5.0,96,0.01,,---,0.04,VWS V14.01,2017-02-21 10:48:00,
2017-02-21 02:49:00,51.8,50.7,30.08,SSE,147,0.0,2.0,96,0.01,,---,0.04,VWS V14.01,2017-02-21 10:49:00,
2017-02-21 02:50:00,51.8,50.7,30.08,SSE,151,0.0,1.0,96,0.01,,---,0.04,VWS V14.01,2017-02-21 10:50:00,
2017-02-21 02:51:00,51.8,50.7,30.08,SSW,208,5.0,6.0,96,0.01,,---,0.04,VWS V14.01,2017-02-21 10:51:00,
2017-02-21 02:52:00,51.8,50.7,30.08,SW,229,1.0,5.0,96,0.01,,---,0.04,VWS V14.01,2017-02-21 10:52:00,
2017-02-21 02:53:00,51.8,50.7,30.08,South,187,1.0,4.0,96,0.01,,---,0.04,VWS V14.01,2017-02-21 10:53:00,
2017-02-21 02:54:00,51.8,50.7,30.08,SW,220,2.0,5.0,96,0.01,,---,0.04,VWS V14.01,2017-02-21 10:54:00,
2017-02-21 02:55:00,51.8,50.7,30.08,SSW,209,2.0,5.0,96,0.01,,---,0.04,VWS V14.01,2017-02-21 10:55:00,
2017-02-21 02:56:00,51.8,50.7,30.08,ESE,107,0.0,2.0,96,0.01,,---,0.04,VWS V14.01,2017-02-21 10:56:00,
2017-02-21 02:57:00,51.7,50.6,30.08,South,178,2.0,3.0,96,0.01,,---,0.04,VWS V14.01,2017-02-21 10:57:00,
2017-02-21 02:58:00,51.7,50.6,30.08,South,180,2.0,2.0,96,0.01,,---,0.04,VWS V14.01,2017-02-21 10:58:00,
2017-02-21 02:59:00,51.7,50.6,30.08,South,174,2.0,6.0,96,0.01,,---,0.04,VWS V14.01,2017-02-21 10:59:00,
2017-02-21 03:00:00,51.7,50.6,30.08,SSW,192,2.0,2.0,96,0.01,,---,0.04,VWS V14.01,2017-02-21 11:00:00,
2017-02-21 03:01:00,51.7,50.6,30.08,WSW,245,0.0,6.0,96,0.01,,---,0.04,VWS V14.01,2017-02-21 11:01:00,
2017-02-21 03:02:00,51.7,50.6,30.08,SSW,198,1.0,3.0,96,0.01,,---,0.04,VWS V14.01,2017-02-21 11:02:00,
2017-02-21 03:03:00,51.7,50.6,30.08,SSW,198,0.0,2.0,96,0.01,,---,0.04,VWS V14.01,2017-02-21 11:03:00,
2017-02-21 03:04:00,51.7,50.6,30.08,South,178,1.0,1.0,96,0.01,,---,0.04,VWS V14.01,2017-02-21 11:04:00,
2017-02-21 03:05:00,51.7,50.6,30.08,SW,218,3.0,6.0,96,0.01,,---,0.04,VWS V14.01,2017-02-21 11:05:00,
2017-02-21 03:06:00,51.7,50.6,30.08,South,180,2.0,10.0,96,0.02,,---,0.05,VWS V14.01,2017-02-21 11:06:00,
2017-02-21 03:07:00,51.7,50.6,30.08,West,266,0.0,3.0,96,0.02,,---,0.05,VWS V14.01,2017-02-21 11:07:00,
2017-02-21 03:08:00,51.7,50.6,30.08,South,182,3.0,11.0,96,0.02,,---,0.05,VWS V14.01,2017-02-21 11:08:00,
2017-02-21 03:09:00,51.6,50.5,30.08,South,185,1.0,6.0,96,0.02,,---,0.05,VWS V14.01,2017-02-21 11:09:00,
2017-02-21 03:10:00,51.6,50.5,30.08,SSW,204,0.0,2.0,96,0.02,,---,0.05,VWS V14.01,2017-02-21 11:10:00,
2017-02-21 03:11:00,51.6,50.5,30.08,SSW,204,0.0,1.0,96,0.02,,---,0.05,VWS V14.01,2017-02-21 11:11:00,
2017-02-21 03:12:00,51.6,50.5,30.08,SW,215,1.0,3.0,96,0.02,,---,0.05,VWS V14.01,2017-02-21 11:12:00,
2017-02-21 03:13:00,51.6,50.5,30.08,SSW,195,1.0,11.0,96,0.02,,---,0.05,VWS V14.01,2017-02-21 11:13:00,
2017-02-21 03:14:00,51.6,50.5,30.08,SSW,193,0.0,5.0,96,0.02,,---,0.05,VWS V14.01,2017-02-21 11:14:00,
2017-02-21 03:15:00,51.6,50.5,30.08,South,175,1.0,7.0,96,0.02,,---,0.05,VWS V14.01,2017-02-21 11:15:00,
2017-02-21 03:16:00,51.6,50.5,30.08,South,179,0.0,1.0,96,0.02,,---,0.05,VWS V14.01,2017-02-21 11:16:00,
2017-02-21 03:17:00,51.5,50.4,30.08,WSW,246,2.0,5.0,96,0.02,,---,0.05,VWS V14.01,2017-02-21 11:17:00,
2017-02-21 03:18:00,51.5,50.4,30.08,South,169,2.0,3.0,96,0.02,,---,0.05,VWS V14.01,2017-02-21 11:18:00,
2017-02-21 03:19:00,51.5,50.7,30.08,SSE,167,1.0,4.0,97,0.02,,---,0.05,VWS V14.01,2017-02-21 11:19:00,
2017-02-21 03:20:00,51.5,50.7,30.08,SSW,192,7.0,7.0,97,0.02,,---,0.05,VWS V14.01,2017-02-21 11:20:00,
2017-02-21 03:21:00,51.5,50.7,30.08,SSW,198,1.0,7.0,97,0.02,,---,0.05,VWS V14.01,2017-02-21 11:21:00,
2017-02-21 03:22:00,51.5,50.7,30.08,NE,55,0.0,1.0,97,0.02,,---,0.05,VWS V14.01,2017-02-21 11:22:00,
2017-02-21 03:23:00,51.5,50.7,30.08,SW,219,0.0,5.0,97,0.02,,---,0.05,VWS V14.01,2017-02-21 11:23:00,
2017-02-21 03:24:00,51.5,50.7,30.08,SW,219,1.0,2.0,97,0.02,,---,0.05,VWS V14.01,2017-02-21 11:24:00,
2017-02-21 03:25:00,51.5,50.7,30.09,West,265,1.0,1.0,97,0.02,,---,0.05,VWS V14.01,2017-02-21 11:25:00,
2017-02-21 03:26:00,51.5,50.7,30.09,WSW,257,2.0,5.0,97,0.02,,---,0.05,VWS V14.01,2017-02-21 11:26:00,
2017-02-21 03:27:00,51.5,50.7,30.09,SW,217,0.0,2.0,97,0.02,,---,0.05,VWS V14.01,2017-02-21 11:27:00,
2017-02-21 03:28:00,51.5,50.7,30.09,SW,224,1.0,1.0,97,0.02,,---,0.05,VWS V14.01,2017-02-21 11:28:00,
2017-02-21 03:29:00,51.5,50.7,30.09,SSW,194,2.0,6.0,97,0.02,,---,0.05,VWS V14.01,2017-02-21 11:29:00,
2017-02-21 03:30:00,51.5,50.7,30.08,South,173,2.0,7.0,97,0.02,,---,0.05,VWS V14.01,2017-02-21 11:30:00,
2017-02-21 03:31:00,51.5,50.7,30.09,South,173,6.0,7.0,97,0.02,,---,0.05,VWS V14.01,2017-02-21 11:31:00,
2017-02-21 03:32:00,51.5,50.7,30.08,SSW,201,1.0,6.0,97,0.02,,---,0.05,VWS V14.01,2017-02-21 11:32:00,
2017-02-21 03:33:00,51.5,50.7,30.09,West,259,3.0,3.0,97,0.02,,---,0.05,VWS V14.01,2017-02-21 11:33:00,
2017-02-21 03:34:00,51.5,50.7,30.08,SW,217,3.0,4.0,97,0.02,,---,0.05,VWS V14.01,2017-02-21 11:34:00,
2017-02-21 03:35:00,51.5,50.7,30.08,South,185,0.0,4.0,97,0.02,,---,0.05,VWS V14.01,2017-02-21 11:35:00,
2017-02-21 03:36:00,51.5,50.7,30.08,SSW,202,3.0,7.0,97,0.02,,---,0.05,VWS V14.01,2017-02-21 11:36:00,
2017-02-21 03:37:00,51.5,50.7,30.08,South,181,2.0,3.0,97,0.02,,---,0.05,VWS V14.01,2017-02-21 11:37:00,
2017-02-21 03:38:00,51.4,50.6,30.08,South,183,5.0,7.0,97,0.02,,---,0.05,VWS V14.01,2017-02-21 11:38:00,
2017-02-21 03:39:00,51.4,50.6,30.09,SSE,166,1.0,4.0,97,0.01,,---,0.05,VWS V14.01,2017-02-21 11:39:00,
2017-02-21 03:40:00,51.4,50.6,30.08,SSE,166,0.0,1.0,97,0.01,,---,0.05,VWS V14.01,2017-02-21 11:40:00,
2017-02-21 03:41:00,51.4,50.6,30.09,SSE,166,0.0,0.0,97,0.01,,---,0.05,VWS V14.01,2017-02-21 11:41:00,
2017-02-21 03:42:00,51.4,50.6,30.08,SSE,166,0.0,0.0,97,0.01,,---,0.05,VWS V14.01,2017-02-21 11:42:00,
2017-02-21 03:43:00,51.4,50.6,30.09,SSW,194,2.0,2.0,97,0.01,,---,0.05,VWS V14.01,2017-02-21 11:43:00,
2017-02-21 03:46:00,51.4,50.6,30.09,South,188,1.0,2.0,97,0.01,,---,0.05,VWS V14.01,2017-02-21 11:46:00,
2017-02-21 03:47:00,51.4,50.6,30.09,SSW,202,1.0,1.0,97,0.01,,---,0.05,VWS V14.01,2017-02-21 11:47:00,
2017-02-21 03:48:00,51.4,50.6,30.09,South,171,1.0,3.0,97,0.01,,---,0.05,VWS V14.01,2017-02-21 11:48:00,
2017-02-21 03:49:00,51.4,50.6,30.09,SSE,161,0.0,3.0,97,0.01,,---,0.05,VWS V14.01,2017-02-21 11:49:00,
2017-02-21 03:50:00,51.4,50.6,30.09,SSE,161,0.0,0.0,97,0.01,,---,0.05,VWS V14.01,2017-02-21 11:50:00,
2017-02-21 03:51:00,51.4,50.6,30.09,South,182,0.0,1.0,97,0.01,,---,0.05,VWS V14.01,2017-02-21 11:51:00,
2017-02-21 03:52:00,51.5,50.7,30.09,SSW,193,4.0,4.0,97,0.01,,---,0.05,VWS V14.01,2017-02-21 11:52:00,
2017-02-21 03:53:00,51.4,50.6,30.09,South,191,0.0,4.0,97,0.01,,---,0.05,VWS V14.01,2017-02-21 11:53:00,
2017-02-21 03:54:00,51.5,50.7,30.09,SSW,200,3.0,4.0,97,0.01,,---,0.05,VWS V14.01,2017-02-21 11:54:00,
2017-02-21 03:55:00,51.4,50.6,30.09,SSW,211,1.0,3.0,97,0.01,,---,0.05,VWS V14.01,2017-02-21 11:55:00,
2017-02-21 03:56:00,51.4,50.6,30.09,SW,235,3.0,6.0,97,0.01,,---,0.05,VWS V14.01,2017-02-21 11:56:00,
2017-02-21 03:57:00,51.5,50.7,30.09,WSW,240,1.0,3.0,97,0.01,,---,0.05,VWS V14.01,2017-02-21 11:57:00,
2017-02-21 03:58:00,51.4,50.6,30.09,South,189,2.0,3.0,97,0.01,,---,0.05,VWS V14.01,2017-02-21 11:58:00,
2017-02-21 03:59:00,51.4,50.6,30.09,South,177,4.0,4.0,97,0.01,,---,0.05,VWS V14.01,2017-02-21 11:59:00,
2017-02-21 04:00:00,51.4,50.6,30.09,SSW,207,3.0,8.0,97,0.01,,---,0.05,VWS V14.01,2017-02-21 12:00:00,
2017-02-21 04:01:00,51.4,50.6,30.09,SSW,198,0.0,3.0,97,0.01,,---,0.05,VWS V14.01,2017-02-21 12:01:00,
2017-02-21 04:02:00,51.4,50.6,30.09,WSW,238,0.0,5.0,97,0.01,,---,0.05,VWS V14.01,2017-02-21 12:02:00,
2017-02-21 04:03:00,51.4,50.6,30.09,WSW,238,0.0,1.0,97,0.01,,---,0.05,VWS V14.01,2017-02-21 12:03:00,
2017-02-21 04:04:00,51.4,50.6,30.09,SW,215,3.0,4.0,97,0.01,,---,0.05,VWS V14.01,2017-02-21 12:04:00,
2017-02-21 04:05:00,51.4,50.6,30.09,SSE,157,1.0,6.0,97,0.02,,---,0.06,VWS V14.01,2017-02-21 12:05:00,
2017-02-21 04:06:00,51.4,50.6,30.09,South,182,0.0,2.0,97,0.02,,---,0.06,VWS V14.01,2017-02-21 12:06:00,
2017-02-21 04:07:00,51.4,50.6,30.09,South,182,0.0,1.0,97,0.01,,---,0.06,VWS V14.01,2017-02-21 12:07:00,
2017-02-21 04:08:00,51.4,50.6,30.09,SSW,208,3.0,3.0,97,0.01,,---,0.06,VWS V14.01,2017-02-21 12:08:00,
2017-02-21 04:09:00,51.4,50.6,30.09,SSW,200,1.0,5.0,97,0.01,,---,0.06,VWS V14.01,2017-02-21 12:09:00,
2017-02-21 04:10:00,51.4,50.6,30.09,SSW,196,0.0,5.0,97,0.01,,---,0.06,VWS V14.01,2017-02-21 12:10:00,
2017-02-21 04:11:00,51.4,50.6,30.09,SSW,195,0.0,1.0,97,0.01,,---,0.06,VWS V14.01,2017-02-21 12:11:00,
2017-02-21 04:12:00,51.4,50.6,30.09,SW,215,3.0,3.0,97,0.01,,---,0.06,VWS V14.01,2017-02-21 12:12:00,
2017-02-21 04:13:00,51.3,50.5,30.09,WSW,240,1.0,3.0,97,0.01,,---,0.06,VWS V14.01,2017-02-21 12:13:00,
2017-02-21 04:14:00,51.3,50.5,30.08,South,187,1.0,4.0,97,0.01,,---,0.06,VWS V14.01,2017-02-21 12:14:00,
2017-02-21 04:15:00,51.3,50.5,30.09,South,182,1.0,6.0,97,0.01,,---,0.06,VWS V14.01,2017-02-21 12:15:00,
2017-02-21 04:16:00,51.3,50.5,30.09,SE,138,5.0,7.0,97,0.01,,---,0.06,VWS V14.01,2017-02-21 12:16:00,
2017-02-21 04:17:00,51.3,50.5,30.09,North,349,1.0,3.0,97,0.01,,---,0.06,VWS V14.01,2017-02-21 12:17:00,
2017-02-21 04:18:00,51.3,50.5,30.09,North,349,0.0,0.0,97,0.01,,---,0.06,VWS V14.01,2017-02-21 12:18:00,
2017-02-21 04:19:00,51.3,50.5,30.09,SSW,211,0.0,4.0,97,0.01,,---,0.06,VWS V14.01,2017-02-21 12:19:00,
2017-02-21 04:20:00,51.3,50.5,30.09,SSW,194,3.0,6.0,97,0.01,,---,0.06,VWS V14.01,2017-02-21 12:20:00,
2017-02-21 04:21:00,51.3,50.5,30.09,South,171,3.0,5.0,97,0.01,,---,0.06,VWS V14.01,2017-02-21 12:21:00,
2017-02-21 04:22:00,51.3,50.5,30.09,South,169,1.0,5.0,97,0.02,,---,0.07,VWS V14.01,2017-02-21 12:22:00,
2017-02-21 04:23:00,51.3,50.5,30.09,South,184,2.0,2.0,97,0.02,,---,0.07,VWS V14.01,2017-02-21 12:23:00,
2017-02-21 04:24:00,51.3,50.5,30.09,South,184,0.0,1.0,97,0.02,,---,0.07,VWS V14.01,2017-02-21 12:24:00,
2017-02-21 04:25:00,51.3,50.5,30.09,South,184,0.0,1.0,97,0.02,,---,0.07,VWS V14.01,2017-02-21 12:25:00,
2017-02-21 04:26:00,51.3,50.5,30.09,South,184,0.0,1.0,97,0.02,,---,0.07,VWS V14.01,2017-02-21 12:26:00,
2017-02-21 04:27:00,51.3,50.5,30.09,SW,226,0.0,2.0,97,0.02,,---,0.07,VWS V14.01,2017-02-21 12:27:00,
2017-02-21 04:28:00,51.3,50.5,30.09,SW,226,0.0,0.0,97,0.02,,---,0.07,VWS V14.01,2017-02-21 12:28:00,
2017-02-21 04:29:00,51.3,50.5,30.09,SW,226,0.0,0.0,97,0.02,,---,0.07,VWS V14.01,2017-02-21 12:29:00,
2017-02-21 04:30:00,51.2,50.4,30.09,SW,226,0.0,0.0,97,0.04,,---,0.09,VWS V14.01,2017-02-21 12:30:00,
2017-02-21 04:31:00,51.2,50.4,30.09,SW,226,0.0,0.0,97,0.04,,---,0.09,VWS V14.01,2017-02-21 12:31:00,
2017-02-21 04:32:00,51.2,50.4,30.09,SW,226,0.0,0.0,97,0.06,,---,0.11,VWS V14.01,2017-02-21 12:32:00,
2017-02-21 04:33:00,51.2,50.4,30.09,SW,226,1.0,1.0,97,0.06,,---,0.11,VWS V14.01,2017-02-21 12:33:00,
2017-02-21 04:34:00,51.2,50.4,30.09,SSW,200,0.0,1.0,97,0.06,,---,0.11,VWS V14.01,2017-02-21 12:34:00,
2017-02-21 04:35:00,51.2,50.4,30.09,SSW,200,1.0,1.0,97,0.06,,---,0.11,VWS V14.01,2017-02-21 12:35:00,
2017-02-21 04:36:00,51.2,50.4,30.10,South,190,2.0,4.0,97,0.08,,---,0.13,VWS V14.01,2017-02-21 12:36:00,
2017-02-21 04:37:00,51.2,50.4,30.10,South,190,0.0,2.0,97,0.08,,---,0.13,VWS V14.01,2017-02-21 12:37:00,
2017-02-21 04:38:00,51.2,50.4,30.09,SSW,203,4.0,4.0,97,0.09,,---,0.14,VWS V14.01,2017-02-21 12:38:00,
2017-02-21 04:39:00,51.2,50.4,30.10,SW,220,0.0,4.0,97,0.10,,---,0.15,VWS V14.01,2017-02-21 12:39:00,
2017-02-21 04:40:00,51.2,50.4,30.10,South,178,0.0,5.0,97,0.11,,---,0.16,VWS V14.01,2017-02-21 12:40:00,
2017-02-21 04:41:00,51.2,50.4,30.10,SSW,200,1.0,2.0,97,0.12,,---,0.17,VWS V14.01,2017-02-21 12:41:00,
2017-02-21 04:42:00,51.2,50.4,30.10,South,181,1.0,3.0,97,0.12,,---,0.17,VWS V14.01,2017-02-21 12:42:00,
2017-02-21 04:43:00,51.2,50.4,30.09,South,181,0.0,2.0,97,0.12,,---,0.17,VWS V14.01,2017-02-21 12:43:00,
2017-02-21 04:44:00,51.2,50.4,30.10,SSE,167,0.0,2.0,97,0.12,,---,0.17,VWS V14.01,2017-02-21 12:44:00,
2017-02-21 04:45:00,51.2,50.4,30.10,SSW,205,1.0,3.0,97,0.12,,---,0.17,VWS V14.01,2017-02-21 12:45:00,
2017-02-21 04:46:00,51.1,50.3,30.10,South,182,0.0,3.0,97,0.12,,---,0.17,VWS V14.01,2017-02-21 12:46:00,
2017-02-21 04:47:00,51.2,50.4,30.10,SSW,204,2.0,5.0,97,0.13,,---,0.18,VWS V14.01,2017-02-21 12:47:00,
2017-02-21 04:48:00,51.1,50.3,30.09,SSW,204,1.0,2.0,97,0.13,,---,0.18,VWS V14.01,2017-02-21 12:48:00,
2017-02-21 04:49:00,51.1,50.3,30.10,SSW,205,0.0,1.0,97,0.13,,---,0.18,VWS V14.01,2017-02-21 12:49:00,
2017-02-21 04:50:00,51.0,50.2,30.10,SSW,205,0.0,1.0,97,0.13,,---,0.18,VWS V14.01,2017-02-21 12:50:00,
2017-02-21 04:51:00,51.0,50.2,30.10,SW,214,3.0,5.0,97,0.13,,---,0.18,VWS V14.01,2017-02-21 12:51:00,
2017-02-21 04:52:00,50.9,50.1,30.10,SSW,210,2.0,3.0,97,0.13,,---,0.18,VWS V14.01,2017-02-21 12:52:00,
2017-02-21 04:53:00,50.8,50.0,30.10,South,186,4.0,7.0,97,0.13,,---,0.18,VWS V14.01,2017-02-21 12:53:00,
2017-02-21 04:54:00,50.8,50.0,30.10,SW,222,1.0,8.0,97,0.13,,---,0.18,VWS V14.01,2017-02-21 12:54:00,
2017-02-21 04:55:00,50.8,50.0,30.10,SW,222,0.0,1.0,97,0.13,,---,0.18,VWS V14.01,2017-02-21 12:55:00,
2017-02-21 04:56:00,50.7,49.9,30.10,South,186,8.0,8.0,97,0.13,,---,0.18,VWS V14.01,2017-02-21 12:56:00,
2017-02-21 04:57:00,50.7,49.9,30.10,WSW,251,1.0,8.0,97,0.13,,---,0.18,VWS V14.01,2017-02-21 12:57:00,
2017-02-21 04:58:00,50.6,49.8,30.10,SSW,207,1.0,1.0,97,0.13,,---,0.18,VWS V14.01,2017-02-21 12:58:00,
2017-02-21 04:59:00,50.6,49.8,30.10,SSW,200,0.0,1.0,97,0.13,,---,0.18,VWS V14.01,2017-02-21 12:59:00,
2017-02-21 05:00:00,50.6,49.8,30.10,SSW,203,1.0,3.0,97,0.13,,---,0.18,VWS V14.01,2017-02-21 13:00:00,
2017-02-21 05:01:00,50.6,49.8,30.10,SSE,165,0.0,2.0,97,0.13,,---,0.18,VWS V14.01,2017-02-21 13:01:00,
2017-02-21 05:02:00,50.6,49.8,30.10,SSE,158,3.0,3.0,97,0.13,,---,0.18,VWS V14.01,2017-02-21 13:02:00,
2017-02-21 05:03:00,50.5,49.7,30.10,SSE,168,1.0,3.0,97,0.13,,---,0.18,VWS V14.01,2017-02-21 13:03:00,
2017-02-21 05:04:00,50.5,49.7,30.10,SSE,167,0.0,1.0,97,0.14,,---,0.19,VWS V14.01,2017-02-21 13:04:00,
2017-02-21 05:05:00,50.5,49.7,30.10,SSE,167,1.0,1.0,97,0.14,,---,0.19,VWS V14.01,2017-02-21 13:05:00,
2017-02-21 05:06:00,50.5,49.7,30.10,SSE,167,0.0,1.0,97,0.13,,---,0.19,VWS V14.01,2017-02-21 13:06:00,
2017-02-21 05:07:00,50.5,49.7,30.10,SSE,167,0.0,0.0,97,0.13,,---,0.19,VWS V14.01,2017-02-21 13:07:00,
2017-02-21 05:08:00,50.5,49.7,30.10,SSE,167,0.0,0.0,97,0.13,,---,0.19,VWS V14.01,2017-02-21 13:08:00,
2017-02-21 05:09:00,50.5,49.7,30.10,SSE,166,1.0,1.0,97,0.13,,---,0.19,VWS V14.01,2017-02-21 13:09:00,
2017-02-21 05:10:00,50.5,49.7,30.10,ENE,65,0.0,3.0,97,0.13,,---,0.19,VWS V14.01,2017-02-21 13:10:00,
2017-02-21 05:11:00,50.5,49.7,30.10,East,94,1.0,1.0,97,0.13,,---,0.19,VWS V14.01,2017-02-21 13:11:00,
2017-02-21 05:12:00,50.5,49.7,30.10,East,95,0.0,1.0,97,0.13,,---,0.19,VWS V14.01,2017-02-21 13:12:00,
2017-02-21 05:13:00,50.5,49.7,30.10,East,94,0.0,1.0,97,0.13,,---,0.19,VWS V14.01,2017-02-21 13:13:00,
2017-02-21 05:14:00,50.5,49.7,30.10,East,94,0.0,1.0,97,0.13,,---,0.19,VWS V14.01,2017-02-21 13:14:00,
2017-02-21 05:15:00,50.5,49.7,30.10,East,94,1.0,1.0,97,0.13,,---,0.19,VWS V14.01,2017-02-21 13:15:00,
2017-02-21 05:16:00,50.5,49.7,30.10,NW,317,1.0,2.0,97,0.13,,---,0.19,VWS V14.01,2017-02-21 13:16:00,
2017-02-21 05:17:00,50.5,49.7,30.10,NW,317,0.0,1.0,97,0.13,,---,0.19,VWS V14.01,2017-02-21 13:17:00,
2017-02-21 05:18:00,50.5,50.0,30.10,South,184,2.0,2.0,98,0.13,,---,0.19,VWS V14.01,2017-02-21 13:18:00,
2017-02-21 05:19:00,50.5,50.0,30.11,SSE,167,0.0,2.0,98,0.13,,---,0.19,VWS V14.01,2017-02-21 13:19:00,
2017-02-21 05:20:00,50.5,50.0,30.11,SSE,157,0.0,4.0,98,0.13,,---,0.19,VWS V14.01,2017-02-21 13:20:00,
2017-02-21 05:21:00,50.5,50.0,30.11,SSE,162,1.0,2.0,98,0.13,,---,0.19,VWS V14.01,2017-02-21 13:21:00,
2017-02-21 05:22:00,50.5,50.0,30.11,SSE,162,0.0,1.0,98,0.13,,---,0.19,VWS V14.01,2017-02-21 13:22:00,
2017-02-21 05:23:00,50.5,50.0,30.11,SSE,163,0.0,1.0,98,0.12,,---,0.19,VWS V14.01,2017-02-21 13:23:00,
2017-02-21 05:24:00,50.4,49.9,30.11,SSE,163,0.0,1.0,98,0.12,,---,0.19,VWS V14.01,2017-02-21 13:24:00,
2017-02-21 05:25:00,50.4,49.9,30.11,South,175,4.0,4.0,98,0.12,,---,0.19,VWS V14.01,2017-02-21 13:25:00,
2017-02-21 05:26:00,50.4,49.9,30.11,SSW,209,2.0,4.0,98,0.12,,---,0.19,VWS V14.01,2017-02-21 13:26:00,
2017-02-21 05:27:00,50.4,49.9,30.11,SSW,194,0.0,3.0,98,0.12,,---,0.19,VWS V14.01,2017-02-21 13:27:00,
2017-02-21 05:28:00,50.4,49.9,30.11,SSW,192,3.0,3.0,98,0.12,,---,0.19,VWS V14.01,2017-02-21 13:28:00,
2017-02-21 05:29:00,50.4,49.9,30.11,SSW,202,1.0,5.0,98,0.12,,---,0.19,VWS V14.01,2017-02-21 13:29:00,
2017-02-21 05:30:00,50.4,49.9,30.11,SSW,203,0.0,1.0,98,0.12,,---,0.19,VWS V14.01,2017-02-21 13:30:00,
2017-02-21 05:31:00,50.4,49.9,30.11,SSW,203,0.0,1.0,98,0.10,,---,0.19,VWS V14.01,2017-02-21 13:31:00,
2017-02-21 05:32:00,50.4,49.9,30.11,SSW,203,0.0,1.0,98,0.10,,---,0.19,VWS V14.01,2017-02-21 13:32:00,
2017-02-21 05:33:00,50.4,49.9,30.11,SSW,204,3.0,5.0,98,0.08,,---,0.19,VWS V14.01,2017-02-21 13:33:00,
2017-02-21 05:34:00,50.4,49.9,30.11,SSE,159,1.0,6.0,98,0.09,,---,0.20,VWS V14.01,2017-02-21 13:34:00,
2017-02-21 05:35:00,50.4,49.9,30.11,SSE,166,2.0,5.0,98,0.09,,---,0.20,VWS V14.01,2017-02-21 13:35:00,
2017-02-21 05:36:00,50.5,50.0,30.11,South,182,2.0,3.0,98,0.09,,---,0.20,VWS V14.01,2017-02-21 13:36:00,
2017-02-21 05:37:00,50.5,50.0,30.11,South,178,0.0,2.0,98,0.07,,---,0.20,VWS V14.01,2017-02-21 13:37:00,
2017-02-21 05:38:00,50.4,49.9,30.11,South,178,0.0,2.0,98,0.07,,---,0.20,VWS V14.01,2017-02-21 13:38:00,
2017-02-21 05:39:00,50.5,50.0,30.11,SSW,194,2.0,4.0,98,0.06,,---,0.20,VWS V14.01,2017-02-21 13:39:00,
2017-02-21 05:40:00,50.5,50.0,30.11,SW,216,0.0,4.0,98,0.05,,---,0.20,VWS V14.01,2017-02-21 13:40:00,
2017-02-21 05:41:00,50.5,50.0,30.11,SSW,203,1.0,3.0,98,0.04,,---,0.20,VWS V14.01,2017-02-21 13:41:00,
2017-02-21 05:42:00,50.5,50.0,30.11,SSE,162,2.0,3.0,98,0.03,,---,0.20,VWS V14.01,2017-02-21 13:42:00,
2017-02-21 05:43:00,50.5,50.0,30.11,SSE,161,1.0,2.0,98,0.03,,---,0.20,VWS V14.01,2017-02-21 13:43:00,
2017-02-21 05:44:00,50.5,50.0,30.11,SSE,166,2.0,2.0,98,0.03,,---,0.20,VWS V14.01,2017-02-21 13:44:00,
2017-02-21 05:45:00,50.5,50.0,30.11,NW,319,1.0,3.0,98,0.03,,---,0.20,VWS V14.01,2017-02-21 13:45:00,
2017-02-21 05:46:00,50.5,50.0,30.11,WSW,247,1.0,2.0,98,0.03,,---,0.20,VWS V14.01,2017-02-21 13:46:00,
2017-02-21 05:47:00,50.5,50.0,30.11,West,281,7.0,7.0,98,0.03,,---,0.20,VWS V14.01,2017-02-21 13:47:00,
2017-02-21 05:48:00,50.4,49.9,30.12,WSW,247,2.0,9.0,98,0.04,,---,0.22,VWS V14.01,2017-02-21 13:48:00,
2017-02-21 05:49:00,50.3,49.8,30.12,NW,304,3.0,5.0,98,0.07,,---,0.25,VWS V14.01,2017-02-21 13:49:00,
2017-02-21 05:53:00,50.3,49.5,30.12,NW,304,0.0,3.0,97,0.07,,---,0.25,VWS V14.01,2017-02-21 13:53:00,
2017-02-21 05:54:00,49.9,49.1,30.12,SSW,207,2.0,6.0,97,0.09,,---,0.27,VWS V14.01,2017-02-21 13:54:00,
2017-02-21 05:55:00,49.8,49.0,30.12,WNW,289,0.0,4.0,97,0.09,,---,0.27,VWS V14.01,2017-02-21 13:55:00,
2017-02-21 05:56:00,49.7,48.9,30.12,West,259,1.0,3.0,97,0.10,,---,0.28,VWS V14.01,2017-02-21 13:56:00,
2017-02-21 05:57:00,49.6,48.8,30.12,West,278,2.0,4.0,97,0.10,,---,0.28,VWS V14.01,2017-02-21 13:57:00,
2017-02-21 05:58:00,49.5,48.7,30.13,SSW,210,1.0,4.0,97,0.11,,---,0.29,VWS V14.01,2017-02-21 13:58:00,
2017-02-21 05:59:00,49.4,48.6,30.12,SW,216,0.0,1.0,97,0.11,,---,0.29,VWS V14.01,2017-02-21 13:59:00,
2017-02-21 06:00:00,49.3,48.5,30.12,South,178,2.0,8.0,97,0.12,,---,0.30,VWS V14.01,2017-02-21 14:00:00,
2017-02-21 06:01:00,49.2,48.4,30.12,West,269,0.0,5.0,97,0.12,,---,0.30,VWS V14.01,2017-02-21 14:01:00,
2017-02-21 06:02:00,49.2,48.4,30.12,SSE,163,2.0,2.0,97,0.12,,---,0.30,VWS V14.01,2017-02-21 14:02:00,
2017-02-21 06:03:00,49.1,48.3,30.13,SSE,163,0.0,2.0,97,0.12,,---,0.30,VWS V14.01,2017-02-21 14:03:00,
2017-02-21 06:04:00,49.0,48.2,30.13,SE,136,0.0,2.0,97,0.12,,---,0.30,VWS V14.01,2017-02-21 14:04:00,
2017-02-21 06:05:00,49.0,48.2,30.13,SE,136,0.0,0.0,97,0.11,,---,0.30,VWS V14.01,2017-02-21 14:05:00,
2017-02-21 06:06:00,49.0,48.2,30.13,SSW,206,3.0,3.0,97,0.11,,---,0.30,VWS V14.01,2017-02-21 14:06:00,
2017-02-21 06:07:00,48.9,48.1,30.13,SSW,206,0.0,3.0,97,0.11,,---,0.30,VWS V14.01,2017-02-21 14:07:00,
2017-02-21 06:08:00,48.9,48.1,30.13,SSE,159,1.0,2.0,97,0.12,,---,0.31,VWS V14.01,2017-02-21 14:08:00,
2017-02-21 06:09:00,48.9,48.1,30.13,West,279,0.0,3.0,97,0.12,,---,0.31,VWS V14.01,2017-02-21 14:09:00,
2017-02-21 06:10:00,48.8,48.0,30.13,West,279,0.0,0.0,97,0.12,,---,0.31,VWS V14.01,2017-02-21 14:10:00,
2017-02-21 06:11:00,48.8,48.0,30.13,West,278,0.0,0.0,97,0.12,,---,0.31,VWS V14.01,2017-02-21 14:11:00,
2017-02-21 06:12:00,48.8,48.0,30.13,West,279,0.0,1.0,97,0.12,,---,0.31,VWS V14.01,2017-02-21 14:12:00,
2017-02-21 06:13:00,48.7,47.9,30.13,West,279,1.0,1.0,97,0.12,,---,0.31,VWS V14.01,2017-02-21 14:13:00,
2017-02-21 06:14:00,48.7,47.9,30.13,WSW,239,1.0,3.0,97,0.12,,---,0.31,VWS V14.01,2017-02-21 14:14:00,
2017-02-21 06:15:00,48.6,47.8,30.13,WNW,283,1.0,3.0,97,0.12,,---,0.31,VWS V14.01,2017-02-21 14:15:00,
2017-02-21 06:16:00,48.6,47.8,30.13,SSE,167,0.0,1.0,97,0.12,,---,0.31,VWS V14.01,2017-02-21 14:16:00,
2017-02-21 06:17:00,48.6,47.8,30.13,South,180,2.0,2.0,97,0.12,,---,0.31,VWS V14.01,2017-02-21 14:17:00,
2017-02-21 06:18:00,48.5,47.7,30.13,SW,229,4.0,5.0,97,0.12,,---,0.31,VWS V14.01,2017-02-21 14:18:00,
2017-02-21 06:19:00,48.5,47.7,30.13,WSW,241,0.0,4.0,97,0.12,,---,0.31,VWS V14.01,2017-02-21 14:19:00,
2017-02-21 06:20:00,48.4,47.6,30.14,South,188,0.0,2.0,97,0.12,,---,0.31,VWS V14.01,2017-02-21 14:20:00,
2017-02-21 06:21:00,48.4,47.6,30.14,West,262,1.0,4.0,97,0.12,,---,0.31,VWS V14.01,2017-02-21 14:21:00,
2017-02-21 06:22:00,48.3,47.5,30.13,SSW,213,8.0,8.0,97,0.12,,---,0.31,VWS V14.01,2017-02-21 14:22:00,
2017-02-21 06:23:00,48.3,47.5,30.14,South,169,0.0,7.0,97,0.12,,---,0.31,VWS V14.01,2017-02-21 14:23:00,
2017-02-21 06:24:00,48.2,47.4,30.14,SSW,209,2.0,2.0,97,0.12,,---,0.31,VWS V14.01,2017-02-21 14:24:00,
2017-02-21 06:25:00,48.2,47.4,30.13,SSW,195,0.0,2.0,97,0.12,,---,0.31,VWS V14.01,2017-02-21 14:25:00,
2017-02-21 06:26:00,48.2,47.4,30.14,SSW,193,0.0,1.0,97,0.12,,---,0.31,VWS V14.01,2017-02-21 14:26:00,
2017-02-21 06:27:00,48.2,47.4,30.14,WSW,244,3.0,6.0,97,0.12,,---,0.31,VWS V14.01,2017-02-21 14:27:00,
2017-02-21 06:28:00,48.1,47.3,30.14,South,178,4.0,6.0,97,0.12,,---,0.31,VWS V14.01,2017-02-21 14:28:00,
2017-02-21 06:29:00,48.1,47.3,30.14,SSW,209,2.0,7.0,97,0.12,,---,0.31,VWS V14.01,2017-02-21 14:29:00,
2017-02-21 06:30:00,48.0,47.2,30.14,West,276,0.0,5.0,97,0.12,,---,0.31,VWS V14.01,2017-02-21 14:30:00,
2017-02-21 06:31:00,48.0,47.2,30.14,SSW,213,1.0,3.0,97,0.12,,---,0.31,VWS V14.01,2017-02-21 14:31:00,
2017-02-21 06:32:00,48.0,47.2,30.14,SSW,209,0.0,1.0,97,0.12,,---,0.31,VWS V14.01,2017-02-21 14:32:00,
2017-02-21 06:33:00,48.0,47.2,30.14,SSW,209,0.0,0.0,97,0.12,,---,0.31,VWS V14.01,2017-02-21 14:33:00,
2017-02-21 06:34:00,48.0,47.2,30.14,SSW,209,0.0,0.0,97,0.12,,---,0.31,VWS V14.01,2017-02-21 14:34:00,
2017-02-21 06:35:00,47.9,47.1,30.14,ESE,110,1.0,2.0,97,0.11,,---,0.31,VWS V14.01,2017-02-21 14:35:00,
2017-02-21 06:36:00,47.9,47.1,30.14,ESE,120,0.0,1.0,97,0.11,,---,0.31,VWS V14.01,2017-02-21 14:36:00,
2017-02-21 06:37:00,47.9,47.1,30.14,ESE,120,0.0,0.0,97,0.11,,---,0.31,VWS V14.01,2017-02-21 14:37:00,
2017-02-21 06:38:00,47.9,47.1,30.14,South,188,2.0,2.0,97,0.11,,---,0.31,VWS V14.01,2017-02-21 14:38:00,
2017-02-21 06:39:00,47.9,47.1,30.14,South,172,0.0,3.0,97,0.11,,---,0.31,VWS V14.01,2017-02-21 14:39:00,
2017-02-21 06:40:00,47.9,47.1,30.15,South,172,0.0,0.0,97,0.11,,---,0.31,VWS V14.01,2017-02-21 14:40:00,
2017-02-21 06:41:00,47.9,47.1,30.15,South,189,0.0,2.0,97,0.11,,---,0.31,VWS V14.01,2017-02-21 14:41:00,
2017-02-21 06:42:00,47.9,47.1,30.15,South,189,0.0,0.0,97,0.11,,---,0.31,VWS V14.01,2017-02-21 14:42:00,
2017-02-21 06:43:00,47.9,47.1,30.15,South,189,0.0,1.0,97,0.11,,---,0.31,VWS V14.01,2017-02-21 14:43:00,
2017-02-21 06:44:00,47.9,47.1,30.15,South,189,0.0,0.0,97,0.11,,---,0.31,VWS V14.01,2017-02-21 14:44:00,
2017-02-21 06:45:00,47.8,47.0,30.15,South,189,0.0,1.0,97,0.11,,---,0.31,VWS V14.01,2017-02-21 14:45:00,
2017-02-21 06:46:00,47.8,47.0,30.15,South,187,1.0,1.0,97,0.11,,---,0.31,VWS V14.01,2017-02-21 14:46:00,
2017-02-21 06:47:00,47.8,47.0,30.15,South,187,0.0,1.0,97,0.11,,---,0.31,VWS V14.01,2017-02-21 14:47:00,
2017-02-21 06:48:00,47.9,47.1,30.15,South,187,0.0,0.0,97,0.11,,---,0.31,VWS V14.01,2017-02-21 14:48:00,
2017-02-21 06:49:00,47.8,47.0,30.15,South,187,0.0,1.0,97,0.09,,---,0.31,VWS V14.01,2017-02-21 14:49:00,
2017-02-21 06:50:00,47.8,47.0,30.15,South,187,0.0,0.0,97,0.06,,---,0.31,VWS V14.01,2017-02-21 14:50:00,
2017-02-21 06:51:00,47.8,47.0,30.15,South,187,0.0,0.0,97,0.05,,---,0.31,VWS V14.01,2017-02-21 14:51:00,
2017-02-21 06:52:00,47.8,47.0,30.15,South,187,1.0,1.0,97,0.05,,---,0.31,VWS V14.01,2017-02-21 14:52:00,
2017-02-21 06:53:00,47.8,47.0,30.16,South,187,0.0,1.0,97,0.05,,---,0.31,VWS V14.01,2017-02-21 14:53:00,
2017-02-21 06:54:00,47.8,47.0,30.15,South,187,0.0,0.0,97,0.05,,---,0.31,VWS V14.01,2017-02-21 14:54:00,
2017-02-21 06:55:00,47.8,47.0,30.15,WSW,247,3.0,4.0,97,0.04,,---,0.31,VWS V14.01,2017-02-21 14:55:00,
2017-02-21 06:56:00,47.8,47.0,30.16,WSW,247,0.0,3.0,97,0.04,,---,0.31,VWS V14.01,2017-02-21 14:56:00,
2017-02-21 06:57:00,47.8,47.0,30.16,WSW,247,0.0,0.0,97,0.03,,---,0.31,VWS V14.01,2017-02-21 14:57:00,
2017-02-21 06:58:00,47.8,47.0,30.16,WSW,246,0.0,1.0,97,0.03,,---,0.31,VWS V14.01,2017-02-21 14:58:00,
2017-02-21 06:59:00,47.8,47.0,30.16,WSW,246,0.0,1.0,97,0.02,,---,0.31,VWS V14.01,2017-02-21 14:59:00,
2017-02-21 07:00:00,47.8,47.0,30.16,WSW,247,0.0,1.0,97,0.02,,---,0.31,VWS V14.01,2017-02-21 15:00:00,
2017-02-21 07:01:00,47.8,47.0,30.16,WSW,246,0.0,0.0,97,0.01,,---,0.31,VWS V14.01,2017-02-21 15:01:00,
2017-02-21 07:02:00,47.8,47.0,30.16,WSW,246,0.0,1.0,97,0.01,,---,0.31,VWS V14.01,2017-02-21 15:02:00,
2017-02-21 07:03:00,47.8,47.0,30.16,South,182,1.0,2.0,97,0.01,,---,0.31,VWS V14.01,2017-02-21 15:03:00,
2017-02-21 07:04:00,47.8,47.0,30.16,South,182,0.0,2.0,97,0.01,,---,0.31,VWS V14.01,2017-02-21 15:04:00,
2017-02-21 07:05:00,47.8,47.0,30.16,South,182,0.0,0.0,97,0.01,,---,0.31,VWS V14.01,2017-02-21 15:05:00,
2017-02-21 07:06:00,47.8,47.0,30.16,South,182,0.0,1.0,97,0.01,,---,0.31,VWS V14.01,2017-02-21 15:06:00,
2017-02-21 07:07:00,47.8,47.0,30.16,South,184,0.0,2.0,97,0.01,,---,0.31,VWS V14.01,2017-02-21 15:07:00,
2017-02-21 07:08:00,47.8,47.0,30.16,South,184,0.0,0.0,97,0.01,,---,0.31,VWS V14.01,2017-02-21 15:08:00,
2017-02-21 07:09:00,47.8,47.0,30.15,South,184,0.0,1.0,97,0.00,,---,0.31,VWS V14.01,2017-02-21 15:09:00,
2017-02-21 07:10:00,47.8,47.0,30.15,South,184,0.0,1.0,97,0.00,,---,0.31,VWS V14.01,2017-02-21 15:10:00,
2017-02-21 07:11:00,47.8,47.0,30.16,SW,231,1.0,2.0,97,0.00,,---,0.31,VWS V14.01,2017-02-21 15:11:00,
2017-02-21 07:12:00,47.9,47.1,30.16,SSW,206,0.0,1.0,97,0.00,,---,0.31,VWS V14.01,2017-02-21 15:12:00,
2017-02-21 07:13:00,47.9,47.1,30.16,SSW,206,0.0,0.0,97,0.00,,---,0.31,VWS V14.01,2017-02-21 15:13:00,
2017-02-21 07:14:00,47.9,47.1,30.16,SSW,206,0.0,1.0,97,0.00,,---,0.31,VWS V14.01,2017-02-21 15:14:00,
2017-02-21 07:15:00,47.9,47.1,30.16,SSW,192,1.0,2.0,97,0.00,,---,0.31,VWS V14.01,2017-02-21 15:15:00,
2017-02-21 07:16:00,47.9,47.1,30.16,SSW,192,0.0,1.0,97,0.00,,---,0.31,VWS V14.01,2017-02-21 15:16:00,
2017-02-21 07:17:00,47.9,47.1,30.16,SSW,192,0.0,1.0,97,0.00,,---,0.31,VWS V14.01,2017-02-21 15:17:00,
2017-02-21 07:18:00,48.0,47.2,30.17,South,178,2.0,2.0,97,0.00,,---,0.31,VWS V14.01,2017-02-21 15:18:00,
2017-02-21 07:19:00,48.0,47.2,30.16,South,178,0.0,2.0,97,0.00,,---,0.31,VWS V14.01,2017-02-21 15:19:00,
2017-02-21 07:20:00,48.0,47.2,30.16,South,178,0.0,0.0,97,0.00,,---,0.31,VWS V14.01,2017-02-21 15:20:00,
2017-02-21 07:21:00,48.0,47.2,30.17,South,173,0.0,2.0,97,0.00,,---,0.31,VWS V14.01,2017-02-21 15:21:00,
2017-02-21 07:22:00,48.0,47.5,30.17,South,173,1.0,1.0,98,0.00,,---,0.31,VWS V14.01,2017-02-21 15:22:00,
2017-02-21 07:23:00,48.0,47.5,30.17,South,186,3.0,3.0,98,0.01,,---,0.32,VWS V14.01,2017-02-21 15:23:00,
2017-02-21 07:24:00,48.1,47.6,30.17,South,178,0.0,3.0,98,0.01,,---,0.32,VWS V14.01,2017-02-21 15:24:00,
2017-02-21 07:25:00,48.1,47.6,30.17,South,188,2.0,3.0,98,0.01,,---,0.32,VWS V14.01,2017-02-21 15:25:00,
2017-02-21 07:26:00,48.1,47.6,30.17,ENE,59,0.0,2.0,98,0.01,,---,0.32,VWS V14.01,2017-02-21 15:26:00,
2017-02-21 07:27:00,48.1,47.6,30.17,SSE,147,1.0,1.0,98,0.01,,---,0.32,VWS V14.01,2017-02-21 15:27:00,
2017-02-21 07:28:00,48.1,47.6,30.17,SSW,197,1.0,3.0,98,0.01,,---,0.32,VWS V14.01,2017-02-21 15:28:00,
2017-02-21 07:29:00,48.1,47.6,30.17,SSW,196,0.0,1.0,98,0.02,,---,0.33,VWS V14.01,2017-02-21 15:29:00,
2017-02-21 07:30:00,48.1,47.6,30.16,South,182,1.0,2.0,98,0.02,,---,0.33,VWS V14.01,2017-02-21 15:30:00,
2017-02-21 07:31:00,48.1,47.6,30.16,South,182,0.0,1.0,98,0.02,,---,0.33,VWS V14.01,2017-02-21 15:31:00,
2017-02-21 07:32:00,48.2,47.7,30.16,South,182,0.0,0.0,98,0.02,,---,0.33,VWS V14.01,2017-02-21 15:32:00,
2017-02-21 07:33:00,48.2,47.7,30.17,South,185,0.0,3.0,98,0.02,,---,0.33,VWS V14.01,2017-02-21 15:33:00,
2017-02-21 07:34:00,48.2,47.7,30.17,SW,214,3.0,5.0,98,0.02,,---,0.33,VWS V14.01,2017-02-21 15:34:00,
2017-02-21 07:35:00,48.2,47.7,30.17,South,190,0.0,2.0,98,0.02,,---,0.33,VWS V14.01,2017-02-21 15:35:00,
2017-02-21 07:36:00,48.2,47.7,30.17,South,190,0.0,1.0,98,0.02,,---,0.33,VWS V14.01,2017-02-21 15:36:00,
2017-02-21 07:37:00,48.2,47.7,30.17,South,190,0.0,0.0,98,0.02,,---,0.33,VWS V14.01,2017-02-21 15:37:00,
2017-02-21 07:38:00,48.3,47.8,30.17,South,180,1.0,1.0,98,0.02,,---,0.33,VWS V14.01,2017-02-21 15:38:00,
2017-02-21 07:39:00,48.3,47.8,30.17,South,180,0.0,1.0,98,0.02,,---,0.33,VWS V14.01,2017-02-21 15:39:00,
2017-02-21 07:40:00,48.3,47.8,30.17,South,180,0.0,1.0,98,0.02,,---,0.33,VWS V14.01,2017-02-21 15:40:00,
2017-02-21 07:41:00,48.4,47.9,30.17,WSW,241,0.0,1.0,98,0.02,,---,0.33,VWS V14.01,2017-02-21 15:41:00,
2017-02-21 07:42:00,48.4,47.9,30.17,WSW,240,0.0,1.0,98,0.02,,---,0.33,VWS V14.01,2017-02-21 15:42:00,
2017-02-21 07:43:00,48.4,47.9,30.16,WSW,240,0.0,0.0,98,0.02,,---,0.33,VWS V14.01,2017-02-21 15:43:00,
2017-02-21 07:44:00,48.4,47.9,30.16,WSW,240,0.0,1.0,98,0.02,,---,0.33,VWS V14.01,2017-02-21 15:44:00,
2017-02-21 07:45:00,48.5,48.0,30.16,South,190,3.0,3.0,98,0.02,,---,0.33,VWS V14.01,2017-02-21 15:45:00,
2017-02-21 07:46:00,48.5,48.0,30.16,SSW,201,0.0,3.0,98,0.02,,---,0.33,VWS V14.01,2017-02-21 15:46:00,
2017-02-21 07:47:00,48.5,48.0,30.17,SSW,201,2.0,2.0,98,0.02,,---,0.33,VWS V14.01,2017-02-21 15:47:00,
2017-02-21 07:48:00,48.5,48.0,30.17,SSW,201,0.0,2.0,98,0.02,,---,0.33,VWS V14.01,2017-02-21 15:48:00,
2017-02-21 07:49:00,48.5,48.0,30.16,SSW,201,0.0,0.0,98,0.02,,---,0.33,VWS V14.01,2017-02-21 15:49:00,
2017-02-21 07:50:00,48.5,48.0,30.17,South,180,2.0,2.0,98,0.02,,---,0.33,VWS V14.01,2017-02-21 15:50:00,
2017-02-21 07:51:00,48.5,48.0,30.17,SSE,159,0.0,2.0,98,0.02,,---,0.33,VWS V14.01,2017-02-21 15:51:00,
2017-02-21 07:52:00,48.5,48.0,30.16,SSE,162,1.0,1.0,98,0.02,,---,0.33,VWS V14.01,2017-02-21 15:52:00,
2017-02-21 07:53:00,48.6,48.1,30.16,SSE,159,1.0,3.0,98,0.02,,---,0.33,VWS V14.01,2017-02-21 15:53:00,
2017-02-21 07:54:00,48.6,48.1,30.16,SSE,159,1.0,1.0,98,0.02,,---,0.33,VWS V14.01,2017-02-21 15:54:00,
2017-02-21 07:55:00,48.6,48.1,30.16,South,182,1.0,1.0,98,0.02,,---,0.33,VWS V14.01,2017-02-21 15:55:00,
2017-02-21 07:56:00,48.6,48.1,30.16,South,182,0.0,1.0,98,0.02,,---,0.33,VWS V14.01,2017-02-21 15:56:00,
2017-02-21 07:57:00,48.6,48.1,30.17,SSW,207,4.0,5.0,98,0.02,,---,0.33,VWS V14.01,2017-02-21 15:57:00,
2017-02-21 07:58:00,48.6,48.1,30.16,SSW,198,0.0,3.0,98,0.02,,---,0.33,VWS V14.01,2017-02-21 15:58:00,
2017-02-21 07:59:00,48.7,48.2,30.17,SW,229,0.0,2.0,98,0.02,,---,0.33,VWS V14.01,2017-02-21 15:59:00,
2017-02-21 08:00:00,48.7,48.2,30.17,SW,229,0.0,0.0,98,0.02,,---,0.33,VWS V14.01,2017-02-21 16:00:00,
2017-02-21 08:01:00,48.7,48.2,30.17,SW,229,0.0,1.0,98,0.02,,---,0.33,VWS V14.01,2017-02-21 16:01:00,
2017-02-21 08:02:00,48.7,48.2,30.17,SW,229,0.0,0.0,98,0.02,,---,0.33,VWS V14.01,2017-02-21 16:02:00,
2017-02-21 08:03:00,48.7,48.2,30.17,SW,229,0.0,0.0,98,0.02,,---,0.33,VWS V14.01,2017-02-21 16:03:00,
2017-02-21 08:04:00,48.8,48.3,30.17,SSW,206,2.0,3.0,98,0.02,,---,0.33,VWS V14.01,2017-02-21 16:04:00,
2017-02-21 08:05:00,48.8,48.3,30.17,SSW,206,0.0,2.0,98,0.02,,---,0.33,VWS V14.01,2017-02-21 16:05:00,
2017-02-21 08:06:00,48.8,48.3,30.17,SSW,206,1.0,1.0,98,0.02,,---,0.33,VWS V14.01,2017-02-21 16:06:00,
2017-02-21 08:07:00,48.8,48.3,30.17,SSW,206,0.0,1.0,98,0.02,,---,0.33,VWS V14.01,2017-02-21 16:07:00,
2017-02-21 08:08:00,48.8,48.3,30.17,SSW,206,0.0,1.0,98,0.02,,---,0.33,VWS V14.01,2017-02-21 16:08:00,
2017-02-21 08:09:00,48.8,48.3,30.17,SSW,205,1.0,2.0,98,0.02,,---,0.33,VWS V14.01,2017-02-21 16:09:00,
2017-02-21 08:10:00,48.9,48.4,30.17,SSW,205,0.0,1.0,98,0.02,,---,0.33,VWS V14.01,2017-02-21 16:10:00,
2017-02-21 08:11:00,48.9,48.4,30.17,SSE,148,0.0,5.0,98,0.02,,---,0.33,VWS V14.01,2017-02-21 16:11:00,
2017-02-21 08:12:00,48.9,48.4,30.17,South,180,2.0,2.0,98,0.02,,---,0.33,VWS V14.01,2017-02-21 16:12:00,
2017-02-21 08:13:00,48.9,48.4,30.18,South,180,0.0,2.0,98,0.02,,---,0.33,VWS V14.01,2017-02-21 16:13:00,
2017-02-21 08:14:00,48.9,48.4,30.18,South,180,0.0,0.0,98,0.02,,---,0.33,VWS V14.01,2017-02-21 16:14:00,
2017-02-21 08:15:00,49.0,48.5,30.18,South,186,1.0,2.0,98,0.02,,---,0.33,VWS V14.01,2017-02-21 16:15:00,
2017-02-21 08:16:00,49.0,48.5,30.18,SE,142,0.0,4.0,98,0.02,,---,0.33,VWS V14.01,2017-02-21 16:16:00,
2017-02-21 08:17:00,49.0,48.5,30.18,SSW,198,1.0,1.0,98,0.02,,---,0.33,VWS V14.01,2017-02-21 16:17:00,
2017-02-21 08:18:00,49.0,48.5,30.18,South,186,0.0,5.0,98,0.02,,---,0.33,VWS V14.01,2017-02-21 16:18:00,
2017-02-21 08:19:00,49.0,48.5,30.18,South,186,0.0,0.0,98,0.02,,---,0.33,VWS V14.01,2017-02-21 16:19:00,
2017-02-21 08:20:00,49.0,48.5,30.18,South,186,0.0,0.0,98,0.02,,---,0.33,VWS V14.01,2017-02-21 16:20:00,
2017-02-21 08:21:00,49.0,48.5,30.18,South,180,0.0,1.0,98,0.02,,---,0.33,VWS V14.01,2017-02-21 16:21:00,
2017-02-21 08:22:00,49.0,48.5,30.18,South,180,0.0,1.0,98,0.02,,---,0.33,VWS V14.01,2017-02-21 16:22:00,
2017-02-21 08:23:00,49.0,48.5,30.18,South,180,0.0,0.0,98,0.01,,---,0.33,VWS V14.01,2017-02-21 16:23:00,
2017-02-21 08:24:00,49.1,48.6,30.18,South,180,0.0,0.0,98,0.01,,---,0.33,VWS V14.01,2017-02-21 16:24:00,
2017-02-21 08:25:00,49.1,48.6,30.18,South,180,1.0,2.0,98,0.01,,---,0.33,VWS V14.01,2017-02-21 16:25:00,
2017-02-21 08:26:00,49.1,48.6,30.18,SSW,197,0.0,4.0,98,0.01,,---,0.33,VWS V14.01,2017-02-21 16:26:00,
2017-02-21 08:27:00,49.1,48.6,30.18,South,190,3.0,4.0,98,0.01,,---,0.33,VWS V14.01,2017-02-21 16:27:00,
2017-02-21 08:28:00,49.1,48.6,30.18,South,190,0.0,3.0,98,0.01,,---,0.33,VWS V14.01,2017-02-21 16:28:00,
2017-02-21 08:29:00,49.1,48.6,30.18,South,190,0.0,0.0,98,0.01,,---,0.33,VWS V14.01,2017-02-21 16:29:00,
2017-02-21 08:30:00,49.1,48.6,30.18,South,190,0.0,0.0,98,0.00,,---,0.33,VWS V14.01,2017-02-21 16:30:00,
2017-02-21 08:31:00,49.1,48.6,30.18,South,190,0.0,0.0,98,0.00,,---,0.33,VWS V14.01,2017-02-21 16:31:00,
2017-02-21 08:32:00,49.1,48.6,30.18,South,190,0.0,0.0,98,0.00,,---,0.33,VWS V14.01,2017-02-21 16:32:00,
2017-02-21 08:33:00,49.1,48.6,30.18,South,190,0.0,0.0,98,0.00,,---,0.33,VWS V14.01,2017-02-21 16:33:00,
2017-02-21 08:34:00,49.1,48.6,30.18,South,190,0.0,1.0,98,0.00,,---,0.33,VWS V14.01,2017-02-21 16:34:00,
2017-02-21 08:35:00,49.1,48.6,30.18,South,190,0.0,0.0,98,0.00,,---,0.33,VWS V14.01,2017-02-21 16:35:00,
2017-02-21 08:36:00,49.1,48.6,30.19,South,190,0.0,1.0,98,0.00,,---,0.33,VWS V14.01,2017-02-21 16:36:00,
2017-02-21 08:37:00,49.1,48.6,30.19,South,190,0.0,1.0,98,0.00,,---,0.33,VWS V14.01,2017-02-21 16:37:00,
2017-02-21 08:38:00,49.1,48.6,30.19,South,190,0.0,1.0,98,0.00,,---,0.33,VWS V14.01,2017-02-21 16:38:00,
2017-02-21 08:39:00,49.2,48.7,30.19,SSW,196,2.0,3.0,98,0.00,,---,0.33,VWS V14.01,2017-02-21 16:39:00,
2017-02-21 08:40:00,49.2,48.7,30.19,SSW,196,0.0,1.0,98,0.00,,---,0.33,VWS V14.01,2017-02-21 16:40:00,
2017-02-21 08:41:00,49.2,48.7,30.19,SSW,196,0.0,0.0,98,0.00,,---,0.33,VWS V14.01,2017-02-21 16:41:00,
2017-02-21 08:42:00,49.2,48.7,30.19,SSW,196,0.0,0.0,98,0.00,,---,0.33,VWS V14.01,2017-02-21 16:42:00,
2017-02-21 08:43:00,49.2,48.7,30.19,SSW,199,0.0,3.0,98,0.00,,---,0.33,VWS V14.01,2017-02-21 16:43:00,
2017-02-21 08:44:00,49.2,48.7,30.19,SSW,199,0.0,0.0,98,0.00,,---,0.33,VWS V14.01,2017-02-21 16:44:00,
2017-02-21 08:45:00,49.2,48.7,30.19,SSW,193,0.0,2.0,98,0.00,,---,0.33,VWS V14.01,2017-02-21 16:45:00,
2017-02-21 08:46:00,49.2,48.7,30.19,SSW,193,0.0,0.0,98,0.00,,---,0.33,VWS V14.01,2017-02-21 16:46:00,
2017-02-21 08:47:00,49.3,48.8,30.19,SSW,193,0.0,1.0,98,0.00,,---,0.33,VWS V14.01,2017-02-21 16:47:00,
2017-02-21 08:48:00,49.3,48.8,30.19,SSW,193,0.0,0.0,98,0.00,,---,0.33,VWS V14.01,2017-02-21 16:48:00,
2017-02-21 08:49:00,49.3,48.8,30.19,SSW,193,1.0,1.0,98,0.00,,---,0.33,VWS V14.01,2017-02-21 16:49:00,
2017-02-21 08:50:00,49.4,48.9,30.19,SSW,207,0.0,3.0,98,0.00,,---,0.33,VWS V14.01,2017-02-21 16:50:00,
2017-02-21 08:51:00,49.4,48.9,30.19,SSW,207,0.0,0.0,98,0.00,,---,0.33,VWS V14.01,2017-02-21 16:51:00,
2017-02-21 08:52:00,49.4,48.9,30.19,SSW,207,0.0,0.0,98,0.00,,---,0.33,VWS V14.01,2017-02-21 16:52:00,
2017-02-21 08:53:00,49.4,48.9,30.19,SSW,207,0.0,0.0,98,0.00,,---,0.33,VWS V14.01,2017-02-21 16:53:00,
2017-02-21 08:54:00,49.5,49.0,30.19,SSW,207,0.0,0.0,98,0.00,,---,0.33,VWS V14.01,2017-02-21 16:54:00,
2017-02-21 08:55:00,49.5,49.0,30.19,SW,219,2.0,3.0,98,0.00,,---,0.33,VWS V14.01,2017-02-21 16:55:00,
2017-02-21 08:56:00,49.5,49.0,30.19,SW,231,1.0,5.0,98,0.00,,---,0.33,VWS V14.01,2017-02-21 16:56:00,
2017-02-21 08:57:00,49.6,49.1,30.19,SW,231,0.0,1.0,98,0.00,,---,0.33,VWS V14.01,2017-02-21 16:57:00,
2017-02-21 08:58:00,49.6,49.1,30.19,South,180,0.0,1.0,98,0.00,,---,0.33,VWS V14.01,2017-02-21 16:58:00,
2017-02-21 08:59:00,49.7,49.2,30.19,SSW,196,6.0,6.0,98,0.00,,---,0.33,VWS V14.01,2017-02-21 16:59:00,
2017-02-21 09:00:00,49.7,49.2,30.19,West,263,0.0,5.0,98,0.00,,---,0.33,VWS V14.01,2017-02-21 17:00:00,
2017-02-21 09:01:00,49.7,49.2,30.19,SW,222,0.0,0.0,98,0.00,,---,0.33,VWS V14.01,2017-02-21 17:01:00,
2017-02-21 09:02:00,49.7,49.2,30.19,SW,216,1.0,1.0,98,0.00,,---,0.33,VWS V14.01,2017-02-21 17:02:00,
2017-02-21 09:03:00,49.7,49.2,30.19,SSW,207,1.0,1.0,98,0.00,,---,0.33,VWS V14.01,2017-02-21 17:03:00,
2017-02-21 09:04:00,49.7,49.2,30.19,SSW,207,0.0,0.0,98,0.00,,---,0.33,VWS V14.01,2017-02-21 17:04:00,
2017-02-21 09:05:00,49.7,49.2,30.19,SSW,207,0.0,0.0,98,0.00,,---,0.33,VWS V14.01,2017-02-21 17:05:00,
2017-02-21 09:06:00,49.7,49.2,30.19,SSW,205,1.0,2.0,98,0.00,,---,0.33,VWS V14.01,2017-02-21 17:06:00,
2017-02-21 09:07:00,49.7,49.2,30.19,SSW,205,0.0,1.0,98,0.00,,---,0.33,VWS V14.01,2017-02-21 17:07:00,
2017-02-21 09:08:00,49.7,49.2,30.19,SSW,205,0.0,0.0,98,0.00,,---,0.33,VWS V14.01,2017-02-21 17:08:00,
2017-02-21 09:09:00,49.7,49.2,30.19,SSW,204,1.0,2.0,98,0.00,,---,0.33,VWS V14.01,2017-02-21 17:09:00,
2017-02-21 09:10:00,49.7,49.2,30.19,South,183,2.0,6.0,98,0.00,,---,0.33,VWS V14.01,2017-02-21 17:10:00,
2017-02-21 09:11:00,49.7,49.2,30.19,South,183,0.0,2.0,98,0.00,,---,0.33,VWS V14.01,2017-02-21 17:11:00,
2017-02-21 09:12:00,49.6,49.1,30.19,South,183,0.0,0.0,98,0.00,,---,0.33,VWS V14.01,2017-02-21 17:12:00,
2017-02-21 09:13:00,49.6,49.1,30.20,South,183,0.0,0.0,98,0.00,,---,0.33,VWS V14.01,2017-02-21 17:13:00,
2017-02-21 09:14:00,49.6,49.1,30.20,South,183,0.0,0.0,98,0.00,,---,0.33,VWS V14.01,2017-02-21 17:14:00,
2017-02-21 09:15:00,49.6,49.1,30.20,SW,227,0.0,3.0,98,0.00,,---,0.33,VWS V14.01,2017-02-21 17:15:00,
2017-02-21 09:16:00,49.6,49.1,30.20,SW,226,0.0,0.0,98,0.00,,---,0.33,VWS V14.01,2017-02-21 17:16:00,
2017-02-21 09:17:00,49.6,49.1,30.20,SW,227,0.0,2.0,98,0.00,,---,0.33,VWS V14.01,2017-02-21 17:17:00,
2017-02-21 09:18:00,49.7,49.2,30.19,SW,226,0.0,0.0,98,0.00,,---,0.33,VWS V14.01,2017-02-21 17:18:00,
2017-02-21 09:19:00,49.7,49.2,30.19,SW,227,0.0,0.0,98,0.00,,---,0.33,VWS V14.01,2017-02-21 17:19:00,
2017-02-21 09:20:00,49.7,49.2,30.20,SW,227,0.0,0.0,98,0.00,,---,0.33,VWS V14.01,2017-02-21 17:20:00,
2017-02-21 09:21:00,49.8,49.3,30.20,SW,227,0.0,0.0,98,0.00,,---,0.33,VWS V14.01,2017-02-21 17:21:00,
2017-02-21 09:22:00,49.8,49.3,30.20,SSW,199,0.0,1.0,98,0.00,,---,0.33,VWS V14.01,2017-02-21 17:22:00,
2017-02-21 09:23:00,49.9,49.4,30.20,SSW,202,0.0,2.0,98,0.00,,---,0.33,VWS V14.01,2017-02-21 17:23:00,
2017-02-21 09:24:00,49.9,49.4,30.20,SSW,203,0.0,3.0,98,0.00,,---,0.33,VWS V14.01,2017-02-21 17:24:00,
2017-02-21 09:25:00,49.9,49.4,30.20,SSW,203,0.0,2.0,98,0.00,,---,0.33,VWS V14.01,2017-02-21 17:25:00,
2017-02-21 09:26:00,50.0,49.5,30.20,SSE,163,0.0,2.0,98,0.00,,---,0.33,VWS V14.01,2017-02-21 17:26:00,
2017-02-21 09:27:00,50.0,49.5,30.20,SSE,163,0.0,0.0,98,0.00,,---,0.33,VWS V14.01,2017-02-21 17:27:00,
2017-02-21 09:28:00,50.0,49.5,30.20,SSE,163,0.0,1.0,98,0.00,,---,0.33,VWS V14.01,2017-02-21 17:28:00,
2017-02-21 09:29:00,50.1,49.6,30.20,SSE,163,0.0,0.0,98,0.00,,---,0.33,VWS V14.01,2017-02-21 17:29:00,
2017-02-21 09:30:00,50.1,49.6,30.20,WSW,252,1.0,3.0,98,0.00,,---,0.33,VWS V14.01,2017-02-21 17:30:00,
2017-02-21 09:31:00,50.1,49.6,30.20,WSW,252,0.0,0.0,98,0.00,,---,0.33,VWS V14.01,2017-02-21 17:31:00,
2017-02-21 09:32:00,50.2,49.7,30.20,WSW,252,0.0,0.0,98,0.00,,---,0.33,VWS V14.01,2017-02-21 17:32:00,
2017-02-21 09:33:00,50.2,49.7,30.20,WSW,252,0.0,0.0,98,0.00,,---,0.33,VWS V14.01,2017-02-21 17:33:00,
2017-02-21 09:34:00,50.2,49.7,30.20,SSW,211,0.0,1.0,98,0.00,,---,0.33,VWS V14.01,2017-02-21 17:34:00,
2017-02-21 09:35:00,50.3,49.8,30.20,SSW,211,0.0,1.0,98,0.00,,---,0.33,VWS V14.01,2017-02-21 17:35:00,
2017-02-21 09:36:00,50.3,49.8,30.20,SSW,211,0.0,0.0,98,0.00,,---,0.33,VWS V14.01,2017-02-21 17:36:00,
2017-02-21 09:37:00,50.3,49.8,30.20,SSW,211,0.0,1.0,98,0.00,,---,0.33,VWS V14.01,2017-02-21 17:37:00,
2017-02-21 09:38:00,50.3,49.8,30.20,SSW,211,0.0,0.0,98,0.00,,---,0.33,VWS V14.01,2017-02-21 17:38:00,
2017-02-21 09:39:00,50.3,49.8,30.20,SSW,211,0.0,0.0,98,0.00,,---,0.33,VWS V14.01,2017-02-21 17:39:00,
2017-02-21 09:40:00,50.4,49.9,30.20,SSW,211,0.0,0.0,98,0.00,,---,0.33,VWS V14.01,2017-02-21 17:40:00,
2017-02-21 09:41:00,50.4,49.9,30.20,SSW,211,2.0,2.0,98,0.00,,---,0.33,VWS V14.01,2017-02-21 17:41:00,
2017-02-21 09:42:00,50.4,49.9,30.20,SW,218,0.0,2.0,98,0.00,,---,0.33,VWS V14.01,2017-02-21 17:42:00,
2017-02-21 09:43:00,50.4,49.9,30.20,SW,218,0.0,0.0,98,0.00,,---,0.33,VWS V14.01,2017-02-21 17:43:00,
2017-02-21 09:44:00,50.5,50.0,30.20,SW,218,0.0,1.0,98,0.00,,---,0.33,VWS V14.01,2017-02-21 17:44:00,
2017-02-21 09:45:00,50.5,50.0,30.20,SW,218,0.0,1.0,98,0.00,,---,0.33,VWS V14.01,2017-02-21 17:45:00,
2017-02-21 09:46:00,50.6,50.1,30.20,SW,218,0.0,0.0,98,0.00,,---,0.33,VWS V14.01,2017-02-21 17:46:00,
2017-02-21 09:47:00,50.6,50.1,30.20,SW,218,0.0,1.0,98,0.00,,---,0.33,VWS V14.01,2017-02-21 17:47:00,
2017-02-21 09:48:00,50.6,50.1,30.20,SW,219,0.0,1.0,98,0.00,,---,0.33,VWS V14.01,2017-02-21 17:48:00,
2017-02-21 09:49:00,50.7,50.2,30.20,SW,219,0.0,0.0,98,0.00,,---,0.33,VWS V14.01,2017-02-21 17:49:00,
2017-02-21 09:50:00,50.7,50.2,30.20,SW,219,0.0,0.0,98,0.00,,---,0.33,VWS V14.01,2017-02-21 17:50:00,
2017-02-21 09:51:00,50.7,50.2,30.20,SW,219,0.0,0.0,98,0.00,,---,0.33,VWS V14.01,2017-02-21 17:51:00,
2017-02-21 09:52:00,50.8,50.3,30.20,SW,219,0.0,0.0,98,0.00,,---,0.33,VWS V14.01,2017-02-21 17:52:00,
2017-02-21 09:53:00,50.8,50.3,30.20,SW,219,0.0,1.0,98,0.00,,---,0.33,VWS V14.01,2017-02-21 17:53:00,
2017-02-21 09:54:00,50.8,50.3,30.20,SW,219,0.0,0.0,98,0.00,,---,0.33,VWS V14.01,2017-02-21 17:54:00,
2017-02-21 09:55:00,50.8,50.3,30.20,SW,219,0.0,0.0,98,0.00,,---,0.33,VWS V14.01,2017-02-21 17:55:00,
2017-02-21 09:56:00,50.8,50.3,30.20,SSW,205,0.0,1.0,98,0.00,,---,0.33,VWS V14.01,2017-02-21 17:56:00,
2017-02-21 09:57:00,50.8,50.3,30.20,SSW,205,0.0,1.0,98,0.00,,---,0.33,VWS V14.01,2017-02-21 17:57:00,
2017-02-21 09:58:00,50.8,50.3,30.20,SSW,205,0.0,0.0,98,0.00,,---,0.33,VWS V14.01,2017-02-21 17:58:00,
2017-02-21 09:59:00,50.8,50.3,30.20,SSE,163,4.0,7.0,98,0.00,,---,0.33,VWS V14.01,2017-02-21 17:59:00,
2017-02-21 10:00:00,50.7,50.2,30.20,SSW,208,0.0,4.0,98,0.00,,---,0.33,VWS V14.01,2017-02-21 18:00:00,
2017-02-21 10:01:00,50.7,50.2,30.21,SSW,208,0.0,0.0,98,0.00,,---,0.33,VWS V14.01,2017-02-21 18:01:00,
2017-02-21 10:02:00,50.7,50.2,30.21,SSW,208,0.0,0.0,98,0.00,,---,0.33,VWS V14.01,2017-02-21 18:02:00,
2017-02-21 10:03:00,50.7,50.2,30.20,SSW,208,0.0,0.0,98,0.00,,---,0.33,VWS V14.01,2017-02-21 18:03:00,
2017-02-21 10:04:00,50.7,50.2,30.20,SSW,208,0.0,0.0,98,0.00,,---,0.33,VWS V14.01,2017-02-21 18:04:00,
2017-02-21 10:05:00,50.7,50.2,30.21,SSW,208,0.0,0.0,98,0.00,,---,0.33,VWS V14.01,2017-02-21 18:05:00,
2017-02-21 10:06:00,50.7,50.2,30.21,South,189,0.0,1.0,98,0.00,,---,0.33,VWS V14.01,2017-02-21 18:06:00,
2017-02-21 10:10:00,50.7,50.2,30.21,South,189,0.0,0.0,98,0.00,,---,0.33,VWS V14.01,2017-02-21 18:10:00,
2017-02-21 10:11:00,50.7,50.2,30.21,South,189,0.0,1.0,98,0.00,,---,0.33,VWS V14.01,2017-02-21 18:11:00,
2017-02-21 10:12:00,50.7,50.2,30.21,South,189,0.0,1.0,98,0.00,,---,0.33,VWS V14.01,2017-02-21 18:12:00,
2017-02-21 10:13:00,50.7,50.2,30.21,South,188,1.0,2.0,98,0.00,,---,0.33,VWS V14.01,2017-02-21 18:13:00,
2017-02-21 10:14:00,50.7,50.2,30.21,South,188,1.0,1.0,98,0.00,,---,0.33,VWS V14.01,2017-02-21 18:14:00,
2017-02-21 10:15:00,50.7,50.2,30.21,South,184,0.0,2.0,98,0.00,,---,0.33,VWS V14.01,2017-02-21 18:15:00,
2017-02-21 10:16:00,50.7,50.2,30.21,South,184,0.0,0.0,98,0.00,,---,0.33,VWS V14.01,2017-02-21 18:16:00,
2017-02-21 10:17:00,50.7,50.2,30.21,South,184,0.0,0.0,98,0.00,,---,0.33,VWS V14.01,2017-02-21 18:17:00,
2017-02-21 10:18:00,50.7,50.2,30.21,SSW,205,3.0,3.0,98,0.00,,---,0.33,VWS V14.01,2017-02-21 18:18:00,
2017-02-21 10:19:00,50.7,50.2,30.21,SSW,205,0.0,3.0,98,0.00,,---,0.33,VWS V14.01,2017-02-21 18:19:00,
2017-02-21 10:20:00,50.7,50.2,30.21,SSW,205,1.0,1.0,98,0.00,,---,0.33,VWS V14.01,2017-02-21 18:20:00,
2017-02-21 10:21:00,50.8,50.3,30.21,South,191,0.0,3.0,98,0.00,,---,0.33,VWS V14.01,2017-02-21 18:21:00,
2017-02-21 10:22:00,50.8,50.3,30.21,South,191,0.0,0.0,98,0.00,,---,0.33,VWS V14.01,2017-02-21 18:22:00,
2017-02-21 10:23:00,50.8,50.3,30.21,South,191,0.0,0.0,98,0.00,,---,0.33,VWS V14.01,2017-02-21 18:23:00,
2017-02-21 10:24:00,50.9,50.4,30.21,South,191,1.0,1.0,98,0.00,,---,0.33,VWS V14.01,2017-02-21 18:24:00,
2017-02-21 10:25:00,50.9,50.4,30.21,South,191,0.0,2.0,98,0.00,,---,0.33,VWS V14.01,2017-02-21 18:25:00,
2017-02-21 10:26:00,50.9,50.4,30.21,South,188,1.0,1.0,98,0.00,,---,0.33,VWS V14.01,2017-02-21 18:26:00,
2017-02-21 10:27:00,51.0,50.5,30.21,South,188,1.0,1.0,98,0.00,,---,0.33,VWS V14.01,2017-02-21 18:27:00,
2017-02-21 10:28:00,51.0,50.5,30.21,South,169,4.0,6.0,98,0.00,,---,0.33,VWS V14.01,2017-02-21 18:28:00,
2017-02-21 10:29:00,51.1,50.6,30.21,South,169,0.0,4.0,98,0.00,,---,0.33,VWS V14.01,2017-02-21 18:29:00,
2017-02-21 10:30:00,51.1,50.6,30.21,South,169,0.0,1.0,98,0.00,,---,0.33,VWS V14.01,2017-02-21 18:30:00,
2017-02-21 10:31:00,51.2,50.7,30.21,SSE,163,2.0,4.0,98,0.00,,---,0.33,VWS V14.01,2017-02-21 18:31:00,
2017-02-21 10:32:00,51.2,50.7,30.21,SSW,204,2.0,4.0,98,0.00,,---,0.33,VWS V14.01,2017-02-21 18:32:00,
2017-02-21 10:33:00,51.2,50.7,30.21,SSW,204,0.0,2.0,98,0.00,,---,0.33,VWS V14.01,2017-02-21 18:33:00,
2017-02-21 10:34:00,51.2,50.7,30.21,SSW,198,0.0,2.0,98,0.00,,---,0.33,VWS V14.01,2017-02-21 18:34:00,
2017-02-21 10:35:00,51.3,50.8,30.21,SSW,198,0.0,1.0,98,0.00,,---,0.33,VWS V14.01,2017-02-21 18:35:00,
2017-02-21 10:36:00,51.3,50.8,30.21,SSW,198,0.0,0.0,98,0.00,,---,0.33,VWS V14.01,2017-02-21 18:36:00,
2017-02-21 10:37:00,51.4,50.9,30.21,South,171,0.0,1.0,98,0.00,,---,0.33,VWS V14.01,2017-02-21 18:37:00,
2017-02-21 10:38:00,51.4,50.9,30.21,South,186,0.0,2.0,98,0.00,,---,0.33,VWS V14.01,2017-02-21 18:38:00,
2017-02-21 10:39:00,51.5,51.0,30.21,South,186,0.0,1.0,98,0.00,,---,0.33,VWS V14.01,2017-02-21 18:39:00,
2017-02-21 10:40:00,51.5,51.0,30.21,South,180,1.0,3.0,98,0.00,,---,0.33,VWS V14.01,2017-02-21 18:40:00,
2017-02-21 10:41:00,51.5,51.0,30.21,South,180,0.0,2.0,98,0.00,,---,0.33,VWS V14.01,2017-02-21 18:41:00,
2017-02-21 10:42:00,51.5,51.0,30.21,South,180,0.0,1.0,98,0.00,,---,0.33,VWS V14.01,2017-02-21 18:42:00,
2017-02-21 10:43:00,51.6,51.1,30.21,South,174,2.0,2.0,98,0.00,,---,0.33,VWS V14.01,2017-02-21 18:43:00,
2017-02-21 10:44:00,51.6,51.1,30.21,SSW,194,3.0,4.0,98,0.00,,---,0.33,VWS V14.01,2017-02-21 18:44:00,
2017-02-21 10:45:00,51.7,51.2,30.21,South,184,1.0,3.0,98,0.01,,---,0.34,VWS V14.01,2017-02-21 18:45:00,
2017-02-21 10:46:00,51.7,51.2,30.21,South,181,0.0,4.0,98,0.01,,---,0.34,VWS V14.01,2017-02-21 18:46:00,
2017-02-21 10:47:00,51.7,51.2,30.21,South,173,0.0,2.0,98,0.01,,---,0.34,VWS V14.01,2017-02-21 18:47:00,
2017-02-21 10:48:00,51.8,51.3,30.21,SSW,207,0.0,3.0,98,0.01,,---,0.34,VWS V14.01,2017-02-21 18:48:00,
2017-02-21 10:49:00,51.8,51.3,30.21,SSW,200,4.0,4.0,98,0.01,,---,0.34,VWS V14.01,2017-02-21 18:49:00,
2017-02-21 10:50:00,51.8,51.3,30.21,South,184,2.0,4.0,98,0.01,,---,0.34,VWS V14.01,2017-02-21 18:50:00,
2017-02-21 10:51:00,51.8,51.3,30.21,SW,229,1.0,4.0,98,0.01,,---,0.34,VWS V14.01,2017-02-21 18:51:00,
2017-02-21 10:52:00,51.9,51.1,30.21,SW,229,1.0,1.0,97,0.01,,---,0.34,VWS V14.01,2017-02-21 18:52:00,
2017-02-21 10:53:00,51.9,51.1,30.21,SW,229,0.0,0.0,97,0.01,,---,0.34,VWS V14.01,2017-02-21 18:53:00,
2017-02-21 10:54:00,52.0,51.2,30.21,SW,220,0.0,1.0,97,0.01,,---,0.34,VWS V14.01,2017-02-21 18:54:00,
2017-02-21 10:55:00,52.1,51.3,30.21,South,186,2.0,2.0,97,0.01,,---,0.34,VWS V14.01,2017-02-21 18:55:00,
2017-02-21 10:56:00,52.2,51.4,30.21,South,186,2.0,3.0,97,0.01,,---,0.34,VWS V14.01,2017-02-21 18:56:00,
2017-02-21 10:57:00,52.2,51.4,30.21,South,187,0.0,2.0,97,0.01,,---,0.34,VWS V14.01,2017-02-21 18:57:00,
2017-02-21 10:58:00,52.3,51.5,30.21,South,187,0.0,1.0,97,0.01,,---,0.34,VWS V14.01,2017-02-21 18:58:00,
2017-02-21 10:59:00,52.4,51.6,30.21,SW,215,1.0,2.0,97,0.01,,---,0.34,VWS V14.01,2017-02-21 18:59:00,
2017-02-21 11:00:00,52.6,51.8,30.21,South,183,1.0,2.0,97,0.01,,---,0.34,VWS V14.01,2017-02-21 19:00:00,
2017-02-21 11:01:00,52.6,51.8,30.21,South,183,0.0,1.0,97,0.01,,---,0.34,VWS V14.01,2017-02-21 19:01:00,
2017-02-21 11:02:00,52.7,51.9,30.21,South,183,0.0,0.0,97,0.01,,---,0.34,VWS V14.01,2017-02-21 19:02:00,
2017-02-21 11:03:00,52.8,52.0,30.20,South,183,0.0,0.0,97,0.01,,---,0.34,VWS V14.01,2017-02-21 19:03:00,
2017-02-21 11:04:00,52.9,52.1,30.20,SW,220,3.0,4.0,97,0.01,,---,0.34,VWS V14.01,2017-02-21 19:04:00,
2017-02-21 11:07:00,51.8,51.3,30.21,South,183,3.0,4.0,98,0.01,,---,0.34,VWS V14.01,2017-02-21 19:07:00,
2017-02-21 11:08:00,52.9,52.1,30.20,SW,224,0.0,3.0,97,0.01,,---,0.34,VWS V14.01,2017-02-21 19:08:00,
2017-02-21 11:09:00,53.1,52.0,30.20,SW,224,0.0,1.0,96,0.01,,---,0.34,VWS V14.01,2017-02-21 19:09:00,
2017-02-21 11:10:00,53.1,52.0,30.20,South,188,4.0,4.0,96,0.01,,---,0.34,VWS V14.01,2017-02-21 19:10:00,
2017-02-21 11:11:00,53.1,52.0,30.20,SW,219,4.0,5.0,96,0.01,,---,0.34,VWS V14.01,2017-02-21 19:11:00,
2017-02-21 11:12:00,53.1,51.7,30.20,SW,221,0.0,4.0,95,0.01,,---,0.34,VWS V14.01,2017-02-21 19:12:00,
2017-02-21 11:13:00,53.0,51.6,30.20,SW,221,0.0,1.0,95,0.01,,---,0.34,VWS V14.01,2017-02-21 19:13:00,
2017-02-21 11:14:00,53.1,51.7,30.20,SW,221,0.0,0.0,95,0.01,,---,0.34,VWS V14.01,2017-02-21 19:14:00,
2017-02-21 11:15:00,53.1,51.7,30.20,SSW,194,2.0,2.0,95,0.01,,---,0.34,VWS V14.01,2017-02-21 19:15:00,
2017-02-21 11:16:00,53.1,51.7,30.20,NW,326,0.0,2.0,95,0.01,,---,0.34,VWS V14.01,2017-02-21 19:16:00,
2017-02-21 11:17:00,53.1,51.4,30.20,SSW,210,1.0,1.0,94,0.01,,---,0.34,VWS V14.01,2017-02-21 19:17:00,
2017-02-21 11:18:00,53.1,51.4,30.20,SSW,205,0.0,2.0,94,0.01,,---,0.34,VWS V14.01,2017-02-21 19:18:00,
2017-02-21 11:19:00,53.0,51.3,30.20,SSW,205,0.0,0.0,94,0.01,,---,0.34,VWS V14.01,2017-02-21 19:19:00,
2017-02-21 11:20:00,53.1,51.4,30.20,SSW,205,0.0,1.0,94,0.01,,---,0.34,VWS V14.01,2017-02-21 19:20:00,
2017-02-21 11:21:00,53.1,51.1,30.20,SSW,205,1.0,2.0,93,0.01,,---,0.34,VWS V14.01,2017-02-21 19:21:00,
2017-02-21 11:22:00,53.1,51.1,30.20,SSW,205,0.0,1.0,93,0.01,,---,0.34,VWS V14.01,2017-02-21 19:22:00,
2017-02-21 11:23:00,53.0,51.0,30.20,SSW,205,0.0,1.0,93,0.01,,---,0.34,VWS V14.01,2017-02-21 19:23:00,
2017-02-21 11:24:00,53.1,51.1,30.20,SSW,205,0.0,1.0,93,0.01,,---,0.34,VWS V14.01,2017-02-21 19:24:00,
2017-02-21 11:25:00,53.1,51.4,30.20,SSW,205,0.0,1.0,94,0.01,,---,0.34,VWS V14.01,2017-02-21 19:25:00,
2017-02-21 11:26:00,53.1,51.4,30.20,SSW,205,0.0,1.0,94,0.01,,---,0.34,VWS V14.01,2017-02-21 19:26:00,
2017-02-21 11:27:00,53.1,51.4,30.20,SSW,205,0.0,0.0,94,0.01,,---,0.34,VWS V14.01,2017-02-21 19:27:00,
2017-02-21 11:28:00,53.2,51.5,30.20,SSW,205,1.0,1.0,94,0.01,,---,0.34,VWS V14.01,2017-02-21 19:28:00,
2017-02-21 11:29:00,53.2,51.5,30.20,SSW,202,0.0,2.0,94,0.01,,---,0.34,VWS V14.01,2017-02-21 19:29:00,
2017-02-21 11:30:00,53.2,51.5,30.20,South,182,1.0,4.0,94,0.01,,---,0.34,VWS V14.01,2017-02-21 19:30:00,
2017-02-21 11:31:00,53.2,51.5,30.20,South,182,0.0,1.0,94,0.01,,---,0.34,VWS V14.01,2017-02-21 19:31:00,
2017-02-21 11:32:00,53.3,51.6,30.20,SSW,194,2.0,3.0,94,0.01,,---,0.34,VWS V14.01,2017-02-21 19:32:00,
2017-02-21 11:33:00,53.3,51.6,30.20,SSW,194,0.0,2.0,94,0.01,,---,0.34,VWS V14.01,2017-02-21 19:33:00,
2017-02-21 11:34:00,53.3,51.6,30.20,SSW,213,2.0,4.0,94,0.01,,---,0.34,VWS V14.01,2017-02-21 19:34:00,
2017-02-21 11:35:00,53.3,51.6,30.20,SSW,213,0.0,2.0,94,0.01,,---,0.34,VWS V14.01,2017-02-21 19:35:00,
2017-02-21 11:36:00,53.3,51.6,30.20,SSW,207,2.0,4.0,94,0.01,,---,0.34,VWS V14.01,2017-02-21 19:36:00,
2017-02-21 11:37:00,53.4,51.7,30.20,South,190,1.0,4.0,94,0.01,,---,0.34,VWS V14.01,2017-02-21 19:37:00,
2017-02-21 11:38:00,53.4,51.7,30.20,South,180,1.0,2.0,94,0.01,,---,0.34,VWS V14.01,2017-02-21 19:38:00,
2017-02-21 11:39:00,53.4,51.7,30.20,South,180,1.0,1.0,94,0.01,,---,0.34,VWS V14.01,2017-02-21 19:39:00,
2017-02-21 11:40:00,53.4,51.7,30.20,South,175,0.0,5.0,94,0.01,,---,0.34,VWS V14.01,2017-02-21 19:40:00,
2017-02-21 11:41:00,53.4,51.7,30.19,South,175,0.0,1.0,94,0.01,,---,0.34,VWS V14.01,2017-02-21 19:41:00,
2017-02-21 11:42:00,53.4,51.7,30.19,South,175,0.0,0.0,94,0.01,,---,0.34,VWS V14.01,2017-02-21 19:42:00,
2017-02-21 11:43:00,53.4,51.7,30.19,SSE,167,0.0,1.0,94,0.01,,---,0.34,VWS V14.01,2017-02-21 19:43:00,
2017-02-21 11:44:00,53.4,51.7,30.19,SSE,167,0.0,0.0,94,0.01,,---,0.34,VWS V14.01,2017-02-21 19:44:00,
2017-02-21 11:45:00,53.5,51.8,30.19,SSE,157,1.0,1.0,94,0.01,,---,0.34,VWS V14.01,2017-02-21 19:45:00,
2017-02-21 11:46:00,53.5,51.5,30.19,SSE,158,0.0,2.0,93,0.00,,---,0.34,VWS V14.01,2017-02-21 19:46:00,
2017-02-21 11:47:00,53.5,51.5,30.19,West,261,4.0,4.0,93,0.00,,---,0.34,VWS V14.01,2017-02-21 19:47:00,
2017-02-21 11:48:00,53.4,51.4,30.19,WSW,254,0.0,4.0,93,0.00,,---,0.34,VWS V14.01,2017-02-21 19:48:00,
2017-02-21 11:49:00,53.4,51.4,30.19,South,173,0.0,2.0,93,0.00,,---,0.34,VWS V14.01,2017-02-21 19:49:00,
2017-02-21 11:50:00,53.4,51.4,30.19,South,178,0.0,2.0,93,0.00,,---,0.34,VWS V14.01,2017-02-21 19:50:00,
2017-02-21 11:51:00,53.5,51.5,30.19,South,178,0.0,0.0,93,0.00,,---,0.34,VWS V14.01,2017-02-21 19:51:00,
2017-02-21 11:52:00,53.5,51.5,30.19,South,178,0.0,0.0,93,0.00,,---,0.34,VWS V14.01,2017-02-21 19:52:00,
2017-02-21 11:53:00,53.5,51.5,30.19,South,177,1.0,1.0,93,0.00,,---,0.34,VWS V14.01,2017-02-21 19:53:00,
2017-02-21 11:54:00,53.4,51.1,30.19,SSW,203,4.0,4.0,92,0.00,,---,0.34,VWS V14.01,2017-02-21 19:54:00,
2017-02-21 11:55:00,53.4,51.1,30.19,South,191,2.0,5.0,92,0.00,,---,0.34,VWS V14.01,2017-02-21 19:55:00,
2017-02-21 11:56:00,53.4,51.1,30.19,South,191,1.0,2.0,92,0.00,,---,0.34,VWS V14.01,2017-02-21 19:56:00,
2017-02-21 11:57:00,53.4,51.1,30.19,South,191,0.0,1.0,92,0.00,,---,0.34,VWS V14.01,2017-02-21 19:57:00,
2017-02-21 11:58:00,53.4,51.1,30.19,West,260,0.0,3.0,92,0.00,,---,0.34,VWS V14.01,2017-02-21 19:58:00,
2017-02-21 11:59:00,53.5,51.2,30.19,WSW,246,1.0,1.0,92,0.00,,---,0.34,VWS V14.01,2017-02-21 19:59:00,
2017-02-21 12:00:00,53.5,51.2,30.19,WSW,246,0.0,1.0,92,0.00,,---,0.34,VWS V14.01,2017-02-21 20:00:00,
2017-02-21 12:01:00,53.5,51.2,30.19,SSE,148,2.0,4.0,92,0.00,,---,0.34,VWS V14.01,2017-02-21 20:01:00,
2017-02-21 12:02:00,53.5,51.2,30.19,SSE,167,0.0,4.0,92,0.00,,---,0.34,VWS V14.01,2017-02-21 20:02:00,
2017-02-21 12:03:00,53.6,51.3,30.19,SSW,201,1.0,6.0,92,0.00,,---,0.34,VWS V14.01,2017-02-21 20:03:00,
2017-02-21 12:04:00,53.7,51.4,30.19,SSE,157,1.0,2.0,92,0.00,,---,0.34,VWS V14.01,2017-02-21 20:04:00,
2017-02-21 12:05:00,53.7,51.4,30.19,SSE,161,2.0,2.0,92,0.00,,---,0.34,VWS V14.01,2017-02-21 20:05:00,
2017-02-21 12:06:00,53.8,51.5,30.18,SSE,161,1.0,2.0,92,0.00,,---,0.34,VWS V14.01,2017-02-21 20:06:00,
2017-02-21 12:07:00,53.9,51.6,30.19,WSW,258,0.0,1.0,92,0.00,,---,0.34,VWS V14.01,2017-02-21 20:07:00,
2017-02-21 12:08:00,54.0,51.7,30.18,South,180,1.0,1.0,92,0.00,,---,0.34,VWS V14.01,2017-02-21 20:08:00,
2017-02-21 12:09:00,54.2,51.9,30.18,South,176,0.0,2.0,92,0.00,,---,0.34,VWS V14.01,2017-02-21 20:09:00,
2017-02-21 12:10:00,54.2,51.9,30.18,SSE,162,0.0,3.0,92,0.00,,---,0.34,VWS V14.01,2017-02-21 20:10:00,
2017-02-21 12:11:00,54.3,51.7,30.18,SE,144,3.0,4.0,91,0.00,,---,0.34,VWS V14.01,2017-02-21 20:11:00,
2017-02-21 12:12:00,54.4,51.5,30.18,SSE,147,2.0,3.0,90,0.00,,---,0.34,VWS V14.01,2017-02-21 20:12:00,
2017-02-21 12:13:00,54.4,51.5,30.18,SSE,148,0.0,3.0,90,0.00,,---,0.34,VWS V14.01,2017-02-21 20:13:00,
2017-02-21 12:14:00,54.5,51.6,30.18,SSE,148,2.0,2.0,90,0.00,,---,0.34,VWS V14.01,2017-02-21 20:14:00,
2017-02-21 12:15:00,54.5,51.3,30.18,SSE,147,1.0,3.0,89,0.00,,---,0.34,VWS V14.01,2017-02-21 20:15:00,
2017-02-21 12:16:00,54.5,51.3,30.18,East,99,0.0,3.0,89,0.00,,---,0.34,VWS V14.01,2017-02-21 20:16:00,
2017-02-21 12:17:00,54.6,51.7,30.17,ENE,63,0.0,4.0,90,0.00,,---,0.34,VWS V14.01,2017-02-21 20:17:00,
2017-02-21 12:18:00,54.6,51.4,30.17,SSE,156,1.0,3.0,89,0.00,,---,0.34,VWS V14.01,2017-02-21 20:18:00,
2017-02-21 12:19:00,54.7,51.5,30.17,South,169,1.0,2.0,89,0.00,,---,0.34,VWS V14.01,2017-02-21 20:19:00,
2017-02-21 12:20:00,54.7,51.5,30.17,WSW,237,0.0,1.0,89,0.00,,---,0.34,VWS V14.01,2017-02-21 20:20:00,
2017-02-21 12:21:00,54.8,51.6,30.17,SSW,211,2.0,5.0,89,0.00,,---,0.34,VWS V14.01,2017-02-21 20:21:00,
2017-02-21 12:22:00,54.8,51.6,30.17,WNW,286,2.0,2.0,89,0.00,,---,0.34,VWS V14.01,2017-02-21 20:22:00,
2017-02-21 12:23:00,54.8,51.3,30.17,SSW,192,1.0,6.0,88,0.00,,---,0.34,VWS V14.01,2017-02-21 20:23:00,
2017-02-21 12:24:00,54.8,51.3,30.17,NW,319,0.0,2.0,88,0.00,,---,0.34,VWS V14.01,2017-02-21 20:24:00,
2017-02-21 12:25:00,54.8,51.3,30.17,SE,146,1.0,2.0,88,0.00,,---,0.34,VWS V14.01,2017-02-21 20:25:00,
2017-02-21 12:26:00,54.8,51.0,30.17,SE,146,1.0,2.0,87,0.00,,---,0.34,VWS V14.01,2017-02-21 20:26:00,
2017-02-21 12:27:00,54.8,51.3,30.17,SE,146,0.0,1.0,88,0.00,,---,0.34,VWS V14.01,2017-02-21 20:27:00,
2017-02-21 12:28:00,54.8,51.3,30.17,SE,146,1.0,1.0,88,0.00,,---,0.34,VWS V14.01,2017-02-21 20:28:00,
2017-02-21 12:29:00,54.8,51.3,30.17,SW,225,1.0,2.0,88,0.00,,---,0.34,VWS V14.01,2017-02-21 20:29:00,
2017-02-21 12:30:00,54.8,51.3,30.17,SE,146,0.0,1.0,88,0.00,,---,0.34,VWS V14.01,2017-02-21 20:30:00,
2017-02-21 12:31:00,54.8,51.0,30.17,SE,146,0.0,0.0,87,0.00,,---,0.34,VWS V14.01,2017-02-21 20:31:00,
2017-02-21 12:32:00,54.7,50.9,30.17,ENE,69,0.0,1.0,87,0.00,,---,0.34,VWS V14.01,2017-02-21 20:32:00,
2017-02-21 12:33:00,54.7,50.9,30.17,SE,130,1.0,1.0,87,0.00,,---,0.34,VWS V14.01,2017-02-21 20:33:00,
2017-02-21 12:34:00,54.7,50.9,30.17,SE,136,0.0,2.0,87,0.00,,---,0.34,VWS V14.01,2017-02-21 20:34:00,
2017-02-21 12:35:00,54.6,50.5,30.17,SW,220,1.0,2.0,86,0.00,,---,0.34,VWS V14.01,2017-02-21 20:35:00,
2017-02-21 12:36:00,54.5,50.4,30.17,South,191,1.0,3.0,86,0.00,,---,0.34,VWS V14.01,2017-02-21 20:36:00,
2017-02-21 12:37:00,54.5,50.4,30.17,South,191,0.0,1.0,86,0.00,,---,0.34,VWS V14.01,2017-02-21 20:37:00,
2017-02-21 12:38:00,54.4,50.3,30.17,SSE,156,3.0,3.0,86,0.00,,---,0.34,VWS V14.01,2017-02-21 20:38:00,
2017-02-21 12:41:00,54.4,50.3,30.17,SSE,153,1.0,2.0,86,0.00,,---,0.34,VWS V14.01,2017-02-21 20:41:00,
2017-02-21 12:42:00,54.2,50.1,30.17,WSW,237,0.0,0.0,86,0.00,,---,0.34,VWS V14.01,2017-02-21 20:42:00,
2017-02-21 12:43:00,54.1,50.0,30.17,West,271,0.0,2.0,86,0.00,,---,0.34,VWS V14.01,2017-02-21 20:43:00,
2017-02-21 12:44:00,54.1,50.3,30.17,WSW,249,1.0,5.0,87,0.00,,---,0.34,VWS V14.01,2017-02-21 20:44:00,
2017-02-21 12:45:00,54.0,50.2,30.17,WSW,248,0.0,1.0,87,0.00,,---,0.34,VWS V14.01,2017-02-21 20:45:00,
2017-02-21 12:46:00,53.9,50.1,30.17,South,184,0.0,4.0,87,0.00,,---,0.34,VWS V14.01,2017-02-21 20:46:00,
2017-02-21 12:47:00,53.8,50.0,30.17,SW,232,0.0,4.0,87,0.00,,---,0.34,VWS V14.01,2017-02-21 20:47:00,
2017-02-21 12:48:00,53.7,49.9,30.17,SW,232,0.0,0.0,87,0.00,,---,0.34,VWS V14.01,2017-02-21 20:48:00,
2017-02-21 12:49:00,53.7,49.9,30.17,SW,232,0.0,0.0,87,0.00,,---,0.34,VWS V14.01,2017-02-21 20:49:00,
2017-02-21 12:50:00,53.6,50.1,30.17,SW,232,0.0,0.0,88,0.00,,---,0.34,VWS V14.01,2017-02-21 20:50:00,
2017-02-21 12:51:00,53.6,50.1,30.18,SW,232,0.0,0.0,88,0.00,,---,0.34,VWS V14.01,2017-02-21 20:51:00,
2017-02-21 12:52:00,53.6,50.1,30.18,SSE,164,1.0,1.0,88,0.00,,---,0.34,VWS V14.01,2017-02-21 20:52:00,
2017-02-21 12:53:00,53.5,50.0,30.18,North,5,1.0,2.0,88,0.01,,---,0.35,VWS V14.01,2017-02-21 20:53:00,
2017-02-21 12:54:00,53.5,50.0,30.18,North,5,0.0,1.0,88,0.01,,---,0.35,VWS V14.01,2017-02-21 20:54:00,
2017-02-21 12:55:00,53.4,49.9,30.18,ESE,109,2.0,2.0,88,0.02,,---,0.36,VWS V14.01,2017-02-21 20:55:00,
2017-02-21 12:56:00,53.3,49.8,30.18,ESE,107,0.0,2.0,88,0.02,,---,0.36,VWS V14.01,2017-02-21 20:56:00,
2017-02-21 12:57:00,53.1,49.7,30.19,NW,321,0.0,3.0,88,0.04,,---,0.38,VWS V14.01,2017-02-21 20:57:00,
2017-02-21 12:58:00,53.0,49.2,30.18,NW,315,2.0,3.0,87,0.08,,---,0.42,VWS V14.01,2017-02-21 20:58:00,
2017-02-21 12:59:00,52.6,48.5,30.18,NE,45,5.0,5.0,86,0.12,,---,0.46,VWS V14.01,2017-02-21 20:59:00,
2017-02-21 13:00:00,52.2,47.8,30.17,NW,319,2.0,6.0,85,0.14,,---,0.48,VWS V14.01,2017-02-21 21:00:00,
2017-02-21 13:01:00,51.8,47.4,30.17,NNE,27,2.0,4.0,85,0.16,,---,0.50,VWS V14.01,2017-02-21 21:01:00,
2017-02-21 13:02:00,51.3,47.0,30.17,NNE,19,0.0,3.0,85,0.17,,---,0.51,VWS V14.01,2017-02-21 21:02:00,
2017-02-21 13:03:00,51.1,46.8,30.17,NNE,19,1.0,1.0,85,0.18,,---,0.52,VWS V14.01,2017-02-21 21:03:00,
2017-02-21 13:04:00,50.8,46.5,30.18,ESE,121,0.0,2.0,85,0.18,,---,0.52,VWS V14.01,2017-02-21 21:04:00,
2017-02-21 13:05:00,50.5,46.5,30.17,ESE,123,0.0,1.0,86,0.18,,---,0.52,VWS V14.01,2017-02-21 21:05:00,
2017-02-21 13:06:00,50.3,46.3,30.17,ESE,123,0.0,1.0,86,0.18,,---,0.52,VWS V14.01,2017-02-21 21:06:00,
2017-02-21 13:07:00,50.2,46.5,30.18,ESE,123,0.0,1.0,87,0.19,,---,0.53,VWS V14.01,2017-02-21 21:07:00,
2017-02-21 13:08:00,50.0,46.3,30.18,ESE,123,0.0,0.0,87,0.19,,---,0.53,VWS V14.01,2017-02-21 21:08:00,
2017-02-21 13:09:00,49.9,46.2,30.18,ESE,123,0.0,0.0,87,0.19,,---,0.53,VWS V14.01,2017-02-21 21:09:00,
2017-02-21 13:10:00,49.8,46.4,30.18,ESE,123,0.0,0.0,88,0.19,,---,0.53,VWS V14.01,2017-02-21 21:10:00,
2017-02-21 13:11:00,49.7,46.3,30.18,ESE,123,0.0,0.0,88,0.19,,---,0.53,VWS V14.01,2017-02-21 21:11:00,
2017-02-21 13:12:00,49.6,46.2,30.18,ESE,123,0.0,0.0,88,0.19,,---,0.53,VWS V14.01,2017-02-21 21:12:00,
2017-02-21 13:13:00,49.5,46.4,30.18,ESE,123,0.0,0.0,89,0.19,,---,0.53,VWS V14.01,2017-02-21 21:13:00,
2017-02-21 13:14:00,49.4,46.3,30.18,ESE,123,0.0,0.0,89,0.20,,---,0.54,VWS V14.01,2017-02-21 21:14:00,
2017-02-21 13:15:00,49.3,46.2,30.17,ESE,123,0.0,0.0,89,0.20,,---,0.54,VWS V14.01,2017-02-21 21:15:00,
2017-02-21 13:16:00,49.2,46.1,30.17,ESE,123,0.0,0.0,89,0.20,,---,0.54,VWS V14.01,2017-02-21 21:16:00,
2017-02-21 13:17:00,49.1,46.0,30.17,ESE,123,0.0,0.0,89,0.20,,---,0.54,VWS V14.01,2017-02-21 21:17:00,
2017-02-21 13:18:00,49.0,46.2,30.17,ESE,123,0.0,0.0,90,0.20,,---,0.54,VWS V14.01,2017-02-21 21:18:00,
2017-02-21 13:19:00,48.9,46.1,30.17,ESE,123,0.0,0.0,90,0.21,,---,0.55,VWS V14.01,2017-02-21 21:19:00,
2017-02-21 13:23:00,48.9,46.1,30.17,ESE,123,0.0,0.0,90,0.21,,---,0.55,VWS V14.01,2017-02-21 21:23:00,
2017-02-21 13:24:00,48.7,46.2,30.17,ESE,123,0.0,0.0,91,0.21,,---,0.55,VWS V14.01,2017-02-21 21:24:00,
2017-02-21 13:25:00,48.7,46.2,30.17,ESE,123,0.0,0.0,91,0.21,,---,0.55,VWS V14.01,2017-02-21 21:25:00,
2017-02-21 13:26:00,48.6,46.1,30.17,ESE,123,0.0,0.0,91,0.21,,---,0.55,VWS V14.01,2017-02-21 21:26:00,
2017-02-21 13:27:00,48.6,46.1,30.17,ESE,123,0.0,0.0,91,0.22,,---,0.56,VWS V14.01,2017-02-21 21:27:00,
2017-02-21 13:28:00,48.5,46.3,30.17,ESE,123,0.0,0.0,92,0.22,,---,0.56,VWS V14.01,2017-02-21 21:28:00,
2017-02-21 13:29:00,48.5,46.3,30.17,ESE,123,0.0,0.0,92,0.22,,---,0.56,VWS V14.01,2017-02-21 21:29:00,
2017-02-21 13:33:00,48.5,46.3,30.17,ESE,123,0.0,0.0,92,0.22,,---,0.56,VWS V14.01,2017-02-21 21:33:00,
2017-02-21 13:34:00,48.3,46.4,30.17,ESE,123,0.0,0.0,93,0.22,,---,0.56,VWS V14.01,2017-02-21 21:34:00,
2017-02-21 13:35:00,48.3,46.4,30.17,ESE,123,0.0,0.0,93,0.22,,---,0.56,VWS V14.01,2017-02-21 21:35:00,
2017-02-21 13:36:00,48.3,46.4,30.17,ESE,123,0.0,0.0,93,0.22,,---,0.56,VWS V14.01,2017-02-21 21:36:00,
2017-02-21 13:37:00,48.3,46.4,30.17,ESE,123,0.0,0.0,93,0.22,,---,0.56,VWS V14.01,2017-02-21 21:37:00,
2017-02-21 13:38:00,48.2,46.3,30.17,ESE,123,0.0,0.0,93,0.22,,---,0.56,VWS V14.01,2017-02-21 21:38:00,
2017-02-21 13:39:00,48.2,46.6,30.17,ESE,123,0.0,0.0,94,0.22,,---,0.56,VWS V14.01,2017-02-21 21:39:00,
2017-02-21 13:40:00,48.2,46.6,30.17,ESE,123,0.0,0.0,94,0.22,,---,0.56,VWS V14.01,2017-02-21 21:40:00,